ECMWFFLT2_sfc_dewp_000.txt.gz
Dewpoint
13 13 17 17 17 14 20 16 17 20 25 22 31 38 33 33 27 24 39 33 33 39 39 47 51 50 50 51 50 50 51 52 52 53 54 56 61 63 64 65 66 68 69 70 70 70 69 70 70 70 71 71 71 70 69 68 67 66 66 67 65 66 64
15 13 15 15 16 20 18 13 16 24 29 28 26 21 31 26 24 28 30 25 28 31 33 47 50 50 50 50 50 50 51 52 52 53 54 56 59 62 64 64 66 68 69 70 70 69 69 70 70 70 71 71 71 70 69 67 66 66 66 66 66 66 64
17 15 14 13 22 18 13 14 22 15 22 20 29 29 21 23 24 24 26 31 33 33 35 45 48 49 50 50 50 50 51 52 52 53 55 56 58 60 62 64 66 68 69 70 70 69 69 69 70 70 70 71 70 69 68 67 66 66 66 66 66 66 65
17 26 14 12 11 20 36 19 17 24 20 27 26 23 28 26 28 25 22 30 25 39 37 45 47 49 50 50 50 50 51 52 52 53 55 57 58 60 61 63 65 68 69 69 69 69 69 69 69 69 70 70 69 68 68 67 66 66 66 66 67 66 65
16 15 16 13 14 14 18 18 19 20 31 26 21 33 27 23 26 25 26 23 32 40 43 45 47 48 49 50 50 51 51 52 52 53 54 57 58 59 60 62 65 67 68 69 69 69 69 69 69 69 69 69 69 68 67 66 66 65 65 66 66 66 65
16 15 16 15 15 15 15 17 16 17 19 22 16 20 30 32 24 24 19 18 31 40 48 48 47 47 48 49 50 50 51 52 52 53 53 56 57 59 60 61 64 66 67 68 68 68 68 68 68 68 69 69 68 67 67 66 65 65 65 66 66 66 66
16 16 15 16 16 17 16 16 15 17 20 23 21 18 22 29 27 32 29 28 31 42 45 46 47 46 45 46 49 50 50 50 52 52 53 56 57 58 59 60 62 65 66 67 68 67 67 68 68 68 69 68 68 67 66 65 65 64 64 65 66 67 66
21 17 17 15 19 17 16 17 17 17 18 19 22 27 31 21 31 23 25 24 28 41 48 44 42 43 41 43 46 48 48 48 50 51 53 55 56 58 59 59 61 63 65 66 67 67 67 68 68 68 68 68 67 67 66 65 64 64 64 65 66 67 66
20 20 24 17 20 18 21 20 18 18 17 17 23 30 38 26 28 25 22 20 30 41 50 43 42 41 41 41 43 45 45 47 49 52 54 56 58 58 59 59 60 62 64 65 66 67 67 68 68 68 68 67 66 66 66 65 64 64 65 66 66 67 66
20 19 18 19 20 20 20 27 16 16 16 16 23 19 29 22 34 32 26 27 34 40 46 43 41 41 41 40 41 45 45 49 51 55 56 57 59 59 59 59 60 61 63 65 66 67 67 68 68 67 67 67 66 66 66 65 65 64 65 66 66 66 66
22 22 28 30 30 24 16 15 16 15 15 16 18 29 30 24 31 29 32 35 35 37 41 39 37 39 38 37 43 48 50 53 56 57 58 59 61 60 59 59 60 62 63 65 67 67 67 67 68 67 66 66 65 66 66 65 65 65 65 66 67 66 65
28 29 31 28 24 16 15 15 14 16 15 18 19 20 21 33 30 25 34 39 35 36 38 37 36 37 38 39 45 49 50 53 56 57 59 65 61 61 60 60 61 62 63 65 66 67 67 67 67 67 66 65 65 65 65 65 65 65 65 66 67 66 65
21 23 28 31 21 16 16 16 15 15 18 20 17 27 21 34 25 25 31 38 37 36 36 36 35 37 38 40 47 48 49 52 53 55 58 61 61 61 60 60 61 62 63 65 66 66 66 66 67 66 65 65 65 65 65 65 64 64 65 66 66 66 65
24 24 25 27 20 17 16 16 16 15 15 17 17 19 25 27 32 28 32 38 39 35 35 34 34 38 39 42 46 47 49 51 54 54 55 60 62 62 61 60 60 62 62 64 65 66 66 66 66 66 65 65 64 64 64 64 64 64 64 65 66 66 65
22 24 25 25 22 20 18 17 16 16 15 15 16 16 20 34 34 34 35 39 40 39 35 35 36 40 42 44 44 45 48 52 54 54 54 56 62 62 62 61 60 60 61 63 64 65 66 66 65 66 65 64 64 63 63 63 64 64 64 65 66 65 65
25 26 21 21 20 19 18 19 22 23 22 24 26 24 25 36 36 38 36 37 37 38 44 42 44 42 42 42 43 45 47 50 53 53 53 54 56 59 62 63 62 61 61 61 62 64 65 65 65 65 65 64 63 63 63 62 63 63 63 64 65 65 66
29 26 20 20 20 18 19 23 22 28 30 30 32 38 42 41 33 40 37 35 36 38 45 42 44 40 40 42 43 43 45 48 49 49 50 51 55 57 58 63 63 63 62 62 62 63 65 65 65 65 65 64 63 63 63 62 63 64 63 64 66 66 65
28 23 21 28 27 24 24 36 36 30 29 30 29 34 38 45 45 36 36 35 41 43 43 40 41 39 41 42 46 49 50 52 52 52 53 54 55 58 61 62 64 64 64 63 63 63 64 65 65 65 65 64 63 62 62 63 63 63 64 64 65 65 65
26 32 25 22 20 27 39 46 35 33 32 33 34 36 37 40 43 43 42 43 44 43 42 42 43 44 48 49 48 49 49 49 50 50 52 51 51 54 60 63 64 64 64 64 64 64 64 65 65 65 64 64 63 63 63 63 63 64 64 65 65 64 64
32 31 28 15 26 38 46 41 40 44 36 37 34 35 35 40 40 41 40 41 42 42 42 43 45 46 48 49 49 49 49 49 48 49 50 51 51 51 53 60 64 64 64 64 64 65 66 66 65 65 64 64 63 61 62 63 64 65 65 64 63 63 63
26 31 27 28 38 35 35 35 39 34 35 37 32 32 36 42 45 41 39 42 42 44 45 46 47 47 46 46 46 48 50 54 53 50 50 52 54 54 56 55 55 64 65 65 65 65 66 66 66 65 64 63 62 61 61 63 63 63 63 63 63 64 64
38 32 29 30 24 25 33 42 43 36 36 35 39 37 37 44 43 47 44 43 43 43 42 43 44 45 41 41 43 46 46 54 55 52 52 49 52 57 62 62 61 61 65 65 65 65 66 65 65 64 63 61 62 62 62 62 61 61 62 63 64 63 62
34 34 29 27 28 31 39 41 39 38 36 36 41 38 35 41 43 47 46 41 42 42 41 43 44 40 38 41 46 49 53 50 50 50 52 57 58 57 58 63 66 68 68 66 65 64 64 63 63 64 64 63 63 63 63 62 61 61 62 62 63 63 64
40 35 30 28 33 36 43 43 42 41 40 38 30 23 32 43 46 49 48 45 47 48 49 44 41 39 39 42 45 48 46 52 53 51 52 56 58 58 59 65 68 68 67 65 63 63 63 64 65 65 65 64 64 64 63 62 62 61 61 61 61 63 64
35 38 33 32 35 46 47 45 42 45 45 38 31 27 38 45 48 48 48 48 49 48 48 47 42 46 47 48 50 49 50 52 52 51 53 55 59 59 63 67 67 63 63 64 64 63 64 64 64 64 64 64 63 62 63 63 62 62 62 62 64 63 62
33 36 30 32 39 43 46 44 46 48 37 35 37 42 48 50 50 49 48 47 48 49 48 48 48 49 49 51 49 48 49 50 51 50 50 52 59 66 67 66 64 62 62 63 63 63 64 64 64 63 63 62 62 63 63 62 62 62 61 61 62 62 62
42 42 36 28 26 40 44 45 47 49 41 41 48 52 52 52 51 51 50 50 49 48 47 49 50 48 47 48 49 50 50 52 53 54 53 54 52 63 65 64 64 62 61 62 62 63 63 64 64 63 62 62 62 63 62 62 62 62 62 63 64 63 62
42 42 35 34 39 44 45 49 45 48 49 50 55 50 47 49 50 50 50 50 51 50 49 48 48 49 48 47 48 50 52 56 56 56 58 60 64 63 65 66 64 62 61 61 61 62 62 62 63 63 63 63 62 62 61 62 62 61 63 63 64 63 63
47 41 45 47 49 46 43 46 47 47 49 50 49 47 47 46 47 51 50 50 51 52 52 52 52 51 51 50 49 51 53 58 56 56 57 58 57 58 62 65 66 62 60 60 60 61 61 62 62 62 63 62 63 62 61 63 61 61 62 63 63 62 62
48 48 51 52 47 46 44 44 44 44 45 47 46 46 45 46 47 49 49 51 52 53 54 52 53 53 54 54 57 59 57 56 57 59 57 57 59 61 63 65 65 62 59 60 60 60 60 60 60 61 61 61 61 61 63 62 61 62 61 61 61 62 63
38 38 47 49 51 49 47 46 45 45 45 46 47 48 49 48 47 47 48 48 49 51 53 54 56 55 56 54 56 60 60 60 60 60 57 56 58 60 62 64 64 60 59 60 59 60 61 63 62 62 62 61 60 62 62 63 63 61 61 61 62 60 59
42 47 51 54 52 48 49 48 47 46 45 45 46 47 47 47 49 47 48 49 47 47 50 52 54 57 58 56 54 59 61 60 60 60 59 58 58 58 61 63 61 60 59 60 61 59 58 60 61 62 61 61 61 62 63 63 62 62 61 60 59 59 60
52 53 51 54 50 43 44 46 48 48 47 45 45 45 44 44 44 44 45 47 48 48 48 50 49 49 54 59 58 58 60 61 60 60 59 59 59 59 59 60 61 60 61 59 57 56 58 60 61 61 62 64 64 63 62 61 60 60 60 59 58 58 61
49 49 47 51 43 41 43 45 48 48 47 44 43 42 42 44 44 45 45 47 50 50 50 52 53 52 56 59 60 57 58 61 61 61 61 61 60 60 60 60 60 61 59 56 56 58 59 60 61 62 62 60 59 59 57 56 56 58 61 63 61 61 62
46 53 51 51 45 45 46 47 49 49 48 44 42 43 42 43 46 49 51 52 54 54 53 48 52 48 50 51 59 59 58 60 62 63 62 61 61 61 60 59 58 56 56 56 57 57 58 59 61 61 60 59 59 58 60 59 58 57 58 61 61 61 62
56 54 53 56 51 43 45 45 46 46 49 43 41 45 46 45 44 45 47 49 50 51 48 45 48 49 47 49 57 60 59 61 62 62 62 61 60 60 59 58 57 57 57 56 56 57 57 59 59 59 59 59 59 60 60 61 60 58 58 59 61 60 61
55 57 53 51 44 45 47 44 41 41 46 46 43 43 46 46 48 50 42 43 43 42 43 42 42 45 48 50 55 58 59 61 62 61 61 61 61 59 58 58 58 58 57 57 57 57 57 58 58 58 58 59 59 59 59 60 59 58 56 55 55 55 56

ECMWFFLT2_sfc_dewp_003.txt.gz
Dewpoint
15 15 19 19 20 16 22 21 19 19 24 19 31 37 36 29 26 20 35 30 31 36 34 40 51 48 46 49 49 49 50 51 53 55 56 57 60 62 64 65 66 67 69 69 69 69 69 70 70 71 71 71 71 71 71 71 71 70 68 67 65 64 63
17 15 18 17 18 19 17 16 19 26 30 27 24 16 27 25 20 25 27 24 25 28 29 44 49 49 50 49 49 49 49 51 52 54 55 56 58 62 64 65 66 67 68 69 69 69 69 70 70 71 71 71 71 71 71 71 71 70 68 67 65 64 63
20 17 16 16 20 19 16 16 21 16 22 20 26 28 21 20 21 22 24 28 33 29 30 41 44 48 49 49 49 49 50 51 52 53 54 56 57 60 63 64 65 67 68 69 69 69 69 70 70 71 71 71 71 71 71 71 70 70 68 67 65 64 64
20 26 14 13 13 19 20 19 17 26 23 27 24 23 26 23 21 23 20 26 25 36 34 38 37 48 49 49 49 49 50 50 51 52 54 55 56 60 62 63 64 66 68 68 69 69 69 69 70 70 71 71 71 71 71 71 70 69 68 67 66 64 64
25 14 15 13 13 17 17 15 18 19 31 26 26 32 26 22 26 23 24 20 29 34 39 40 37 47 50 50 49 50 50 51 51 52 53 54 55 58 61 63 64 65 67 68 69 69 69 69 70 70 70 70 70 70 70 70 69 68 67 66 66 65 64
17 15 18 15 17 16 15 15 15 17 18 21 18 21 25 31 24 22 20 19 28 32 46 44 40 48 51 50 50 50 50 51 51 52 53 54 55 57 60 62 63 64 66 68 68 69 69 69 69 70 70 70 70 70 70 70 69 68 67 66 66 65 64
15 16 17 23 15 15 15 15 14 17 19 23 20 18 22 25 25 31 28 22 24 38 47 47 47 50 51 51 50 50 51 51 51 52 53 54 55 56 58 61 62 64 66 67 68 69 69 69 69 69 70 69 69 70 69 69 68 68 66 66 66 66 64
24 22 20 19 26 19 16 16 16 17 18 18 18 21 26 21 28 23 22 23 26 36 50 50 48 50 51 51 51 50 51 51 51 52 53 54 55 56 58 59 61 63 65 67 68 68 69 69 69 69 69 69 69 69 69 69 68 67 67 65 65 65 64
16 18 21 18 20 17 21 18 18 17 18 19 29 33 32 23 27 25 22 20 24 38 49 47 47 48 48 50 51 51 51 52 52 52 53 55 56 57 58 59 60 62 64 66 67 68 69 69 69 69 69 69 69 69 69 68 68 67 66 65 65 65 64
16 16 15 16 16 19 22 28 18 18 17 20 23 21 25 20 31 31 24 24 30 35 42 43 45 46 47 49 50 51 51 52 52 53 54 55 56 57 58 59 59 61 63 65 67 68 69 69 69 69 69 69 69 69 69 68 67 67 66 65 65 64 64
17 20 27 30 33 25 15 16 16 16 17 18 20 31 23 18 28 26 29 31 30 33 39 41 41 44 44 44 45 48 49 51 52 53 54 55 56 57 58 59 59 60 62 64 66 67 68 68 68 68 68 68 68 69 68 68 67 66 66 65 65 65 64
22 23 28 28 27 16 16 16 15 16 16 18 22 25 23 30 27 24 32 38 32 33 39 40 41 42 44 45 44 45 48 49 50 52 54 60 56 57 58 58 59 59 61 63 65 66 67 68 68 68 68 68 68 68 68 67 67 66 65 65 65 65 65
21 19 20 23 28 22 18 17 15 15 18 20 19 25 27 31 22 23 31 37 35 34 37 39 40 41 42 43 43 44 46 49 51 52 54 55 55 56 57 57 58 59 60 62 64 65 67 67 67 68 68 68 68 68 68 67 66 66 65 65 65 65 65
17 19 16 16 18 19 20 17 15 15 15 17 18 20 30 26 30 28 32 38 36 34 36 39 39 41 42 43 46 49 47 48 52 54 54 55 55 56 56 57 58 59 60 61 63 64 66 67 67 67 67 68 68 68 67 67 66 66 65 65 65 65 65
17 17 18 17 17 17 16 20 16 15 15 16 17 18 29 32 31 30 34 37 36 37 38 39 40 43 46 46 46 46 47 51 54 55 55 55 56 56 57 58 58 59 60 61 62 64 65 66 67 67 67 67 67 67 67 66 66 66 65 65 65 65 65
18 16 17 18 21 22 19 17 18 17 16 19 21 23 26 29 29 32 35 35 34 35 40 44 41 41 41 43 46 48 49 52 55 55 56 57 57 58 59 60 60 60 61 61 62 63 64 66 66 67 67 67 67 67 66 66 66 66 65 65 65 65 65
19 16 17 20 24 25 23 23 21 20 22 30 32 41 44 37 34 33 29 28 30 33 45 40 41 41 41 42 45 47 50 52 54 55 56 57 59 60 61 61 61 60 61 61 62 63 65 66 66 67 67 67 67 67 66 66 66 65 65 65 65 65 65
22 22 20 22 22 18 25 35 32 33 30 31 33 37 39 44 42 36 33 30 39 43 40 38 39 40 41 43 46 48 49 52 54 54 55 57 60 61 62 62 62 61 61 61 62 63 65 66 66 67 67 67 67 66 65 65 65 65 65 65 65 66 65
22 26 25 23 19 26 38 41 38 35 36 38 39 42 44 43 46 49 42 42 41 42 40 39 40 42 46 49 49 49 51 53 53 53 53 56 60 61 62 62 63 62 62 61 61 62 63 64 66 66 66 67 66 63 63 63 63 64 64 64 65 65 65
29 26 21 15 25 35 44 39 40 44 37 37 37 38 39 43 44 44 43 43 44 45 44 45 46 46 48 48 51 51 52 53 52 52 53 55 58 58 59 61 62 63 63 62 61 62 63 64 65 66 66 66 65 62 63 63 62 62 64 64 65 65 65
22 27 23 24 36 39 38 39 40 39 35 37 34 35 38 44 45 46 43 45 46 46 46 46 46 46 45 45 45 48 50 51 53 53 53 54 55 55 58 60 60 63 64 64 63 63 63 64 64 65 65 65 63 62 62 63 63 63 64 64 64 65 65
35 27 26 28 28 29 35 44 44 44 39 38 41 37 38 45 47 48 48 44 45 46 46 47 47 46 42 42 43 45 49 53 55 52 53 51 53 54 56 58 58 63 64 65 65 65 65 64 64 65 65 64 63 62 62 63 63 64 63 63 64 65 65
39 33 25 25 29 32 42 40 42 44 44 42 43 40 36 43 48 48 47 44 44 43 42 44 46 41 38 39 43 48 49 51 52 51 53 54 57 58 57 57 56 63 65 65 65 66 65 65 65 64 64 63 62 62 63 63 64 63 63 62 63 64 64
36 36 32 29 35 37 42 43 44 44 46 43 36 30 32 45 48 49 49 48 47 46 48 46 43 39 39 43 47 49 50 52 52 54 56 58 58 62 66 66 63 64 66 66 64 65 65 65 65 64 63 63 63 62 63 63 63 63 62 63 63 63 63
36 38 34 35 39 45 46 43 44 45 47 39 30 30 37 46 49 48 47 46 47 46 46 45 43 46 46 47 49 50 51 49 50 52 56 59 60 63 66 66 68 65 64 64 64 64 65 65 64 64 63 62 63 63 62 62 62 62 62 62 63 63 64
35 37 36 33 38 42 44 44 45 47 40 36 37 43 47 50 50 50 47 46 47 47 47 47 47 48 49 50 50 52 52 52 52 51 52 60 65 66 67 66 63 62 62 62 62 63 63 64 64 63 63 62 62 62 61 61 62 62 62 62 62 63 64
41 39 36 32 32 40 44 45 47 49 39 40 46 49 50 53 51 51 51 50 49 49 49 50 50 50 51 51 52 53 55 55 55 56 55 54 60 63 63 63 63 62 61 62 62 63 64 64 64 63 63 62 62 62 61 62 62 63 63 63 63 63 65
39 39 36 36 39 43 44 47 46 47 49 50 50 48 48 50 50 50 51 52 53 52 52 51 52 52 52 54 54 53 54 55 54 56 57 59 62 63 65 65 63 63 61 61 62 62 63 63 63 63 63 63 63 61 60 62 63 63 63 64 64 63 64
45 41 43 45 48 49 45 46 46 46 47 48 48 47 47 46 47 49 49 50 51 52 51 52 53 52 53 54 57 55 55 55 55 55 55 57 58 61 64 64 63 62 61 61 61 61 61 62 62 62 62 62 62 61 61 63 63 63 63 64 64 63 63
47 46 48 51 49 46 46 46 46 45 46 47 47 46 46 47 48 47 46 47 47 47 48 46 49 53 53 52 54 56 57 56 58 59 58 56 57 61 63 63 62 60 60 61 61 60 61 61 61 61 62 62 62 61 63 63 63 63 64 63 64 63 63
40 40 45 50 47 47 44 44 45 46 47 47 48 48 48 48 48 48 48 47 47 47 48 47 47 47 50 50 53 56 57 56 57 59 59 58 58 58 60 62 63 60 60 60 60 61 61 60 59 60 61 62 62 62 62 62 62 62 62 62 63 62 62
42 45 50 52 50 47 48 44 42 42 44 45 49 51 54 54 53 50 50 49 50 51 49 48 46 46 48 48 51 54 55 56 57 56 58 58 58 59 60 61 61 59 60 60 61 61 60 60 59 59 60 60 58 56 56 57 59 60 61 59 57 57 58
49 49 51 52 48 45 46 47 46 45 44 44 44 45 45 45 46 47 48 50 48 49 49 48 46 45 48 49 51 54 56 56 57 56 58 59 59 59 60 60 60 60 60 60 60 60 60 60 59 58 57 56 57 58 57 57 57 56 57 60 60 60 60
45 46 46 50 42 41 42 45 46 45 45 45 47 48 48 48 48 47 46 47 48 47 48 48 47 47 49 49 52 55 57 56 58 59 59 59 60 60 60 61 60 60 60 60 60 60 60 59 55 54 54 53 54 56 57 57 58 59 59 59 59 60 59
46 51 50 47 44 45 46 46 46 46 44 43 44 43 44 46 49 47 45 43 44 45 45 47 45 48 49 50 53 54 57 58 59 60 60 60 61 59 60 59 58 58 59 61 61 60 59 56 54 54 53 53 53 54 55 57 55 56 57 59 59 60 60
54 55 52 48 42 39 42 44 44 45 45 42 42 43 43 43 42 43 42 42 42 43 44 44 46 48 50 50 51 52 54 57 59 60 61 62 61 60 60 58 57 58 60 60 60 60 58 56 54 54 55 55 55 56 57 57 56 56 57 58 58 58 59
45 50 45 44 44 42 42 43 44 45 47 45 44 44 42 41 42 43 44 44 44 43 45 46 47 50 50 49 50 51 53 56 59 61 62 61 62 59 59 57 57 58 59 59 60 59 57 56 55 55 55 56 57 57 58 57 57 56 56 57 55 56 56

ECMWFFLT2_sfc_dewp_006.txt.gz
Dewpoint
15 16 22 22 19 16 22 20 19 20 25 20 33 38 34 28 25 22 38 34 34 34 38 38 47 47 47 46 45 47 48 50 52 52 54 56 57 58 60 62 63 64 65 67 68 68 68 69 69 70 70 71 71 71 71 71 71 71 71 72 71 70 69
15 14 20 19 19 20 18 18 20 28 30 28 26 17 27 24 20 24 32 31 29 33 32 43 43 43 43 46 45 46 48 50 51 51 54 56 57 59 60 62 63 64 65 66 67 68 69 69 69 70 70 71 71 71 71 71 71 71 71 71 70 70 68
20 18 16 15 21 21 17 20 24 17 23 20 29 26 21 21 20 22 25 30 32 32 32 38 37 40 39 43 48 49 48 49 50 51 53 55 57 59 60 61 63 64 65 66 67 68 68 69 70 70 70 71 71 71 71 71 71 71 71 71 70 69 68
19 24 11 8 9 18 18 22 19 28 23 28 24 24 26 24 20 23 20 27 26 34 31 32 31 37 39 41 48 47 47 49 49 50 52 54 57 59 60 61 62 64 65 66 67 67 68 69 69 70 70 70 70 71 71 71 71 71 71 70 70 68 67
24 14 14 7 8 13 17 17 19 24 28 26 25 31 26 22 25 23 22 22 28 31 34 33 32 35 40 43 46 48 48 48 49 51 52 54 56 58 60 62 62 64 65 66 67 68 68 69 69 69 69 70 70 70 70 70 70 70 70 70 69 68 67
16 12 17 12 11 15 16 15 17 18 20 22 19 19 25 30 27 23 20 19 28 31 41 37 34 36 40 45 45 46 48 49 50 51 52 54 55 57 60 61 62 63 65 66 67 68 68 68 69 69 69 70 69 70 70 70 70 70 70 70 69 68 67
14 16 17 30 16 15 16 16 15 17 18 23 21 18 24 26 25 31 28 22 24 32 39 37 35 40 45 47 49 48 49 50 50 51 51 53 55 57 58 60 62 63 65 66 67 68 69 69 69 69 69 69 69 70 70 70 70 70 69 69 69 68 67
20 22 22 23 27 18 15 15 15 16 16 17 18 21 28 24 29 25 23 22 26 33 48 49 45 49 50 51 50 49 50 51 51 51 52 54 55 57 58 60 61 63 65 66 67 68 69 69 69 69 69 69 69 69 70 70 70 70 69 69 68 67 66
15 15 20 18 23 17 17 15 16 16 16 17 24 29 33 22 27 26 22 19 25 33 48 48 50 50 51 51 51 51 50 51 51 52 53 54 56 56 57 59 61 63 64 65 67 68 68 69 69 69 69 69 69 70 70 69 70 70 70 69 68 67 66
14 14 13 13 14 18 21 30 18 19 16 18 24 21 26 21 30 30 24 24 29 33 40 44 48 50 51 51 51 51 51 52 52 52 53 55 55 56 57 58 60 62 64 65 66 67 68 69 69 69 69 69 69 69 70 70 69 70 69 68 67 67 66
14 17 24 30 34 24 16 17 16 16 16 20 20 29 24 19 27 26 28 31 29 30 31 38 42 47 48 49 50 51 51 52 53 54 54 54 55 56 56 58 59 62 63 64 65 67 67 68 69 69 69 69 69 70 70 69 70 69 69 68 67 66 66
20 19 23 24 27 17 16 15 15 16 16 20 22 23 21 30 27 24 32 35 28 28 30 35 41 44 47 50 50 51 52 52 52 53 54 59 55 56 57 58 58 60 62 64 65 66 67 68 69 69 69 69 69 69 69 69 69 69 69 69 67 66 66
19 16 16 26 28 18 18 18 15 16 18 20 20 25 26 30 22 21 31 35 31 29 28 31 38 43 45 47 48 50 51 53 54 54 54 55 54 55 56 57 58 59 60 62 64 65 66 67 68 69 69 69 70 70 69 70 69 69 69 68 67 66 65
17 18 16 24 22 21 20 18 18 17 16 18 18 20 26 25 30 28 31 35 30 27 28 31 36 42 44 46 50 51 51 51 53 53 53 53 54 54 55 57 57 59 59 61 63 64 66 67 68 68 69 69 69 69 69 69 69 69 69 68 68 67 65
17 16 18 18 21 19 17 19 18 17 16 17 18 19 26 32 26 25 30 34 33 32 33 32 41 47 48 47 47 47 49 51 52 52 53 53 54 54 55 57 57 58 60 61 62 63 65 66 67 68 69 69 69 69 69 69 69 69 68 68 68 67 66
19 17 17 17 18 18 17 15 16 18 18 20 19 24 28 32 31 33 35 33 31 32 39 45 45 45 45 45 46 47 48 50 52 52 52 53 54 55 55 56 57 58 59 60 61 62 63 65 67 67 68 69 69 69 69 69 68 68 68 67 67 67 67
22 19 16 15 17 21 19 18 16 17 19 20 23 34 40 32 30 34 28 27 30 31 43 38 41 42 43 43 45 46 48 50 51 51 52 52 54 55 56 57 58 58 58 59 61 62 63 64 66 67 68 68 68 69 69 69 69 68 67 67 67 67 67
21 17 19 21 20 15 18 30 22 19 17 20 20 28 33 41 36 32 30 29 39 44 40 36 37 41 42 43 47 48 49 49 51 51 53 53 54 55 56 57 58 59 60 61 61 62 63 64 64 66 67 67 68 69 69 69 68 68 67 67 67 67 67
19 27 25 23 15 18 35 41 40 31 19 19 25 43 43 45 47 46 43 40 41 42 40 40 41 45 48 51 49 49 53 52 52 53 54 55 57 57 59 60 60 61 61 62 62 63 63 63 65 66 67 67 68 68 68 68 68 68 67 67 67 67 66
29 25 22 14 21 32 41 39 41 45 39 39 38 39 43 47 47 47 45 44 44 46 45 46 47 48 49 48 50 52 52 55 54 55 55 57 59 60 61 61 62 62 61 62 61 62 63 64 65 66 66 67 67 67 67 67 67 67 67 66 66 67 66
24 26 19 22 33 36 37 39 42 42 38 39 35 34 38 47 49 49 47 47 46 47 46 47 47 48 47 47 48 49 50 53 55 55 55 58 60 61 62 62 62 63 62 62 62 63 63 64 65 66 66 67 67 66 65 65 65 65 66 66 66 66 66
33 28 29 30 30 30 34 41 44 45 43 44 43 40 37 45 47 49 49 47 46 48 47 46 46 47 45 45 47 49 50 52 55 55 56 57 58 59 61 61 62 63 64 64 65 63 63 63 64 65 66 66 67 66 64 64 64 64 65 65 66 66 66
32 30 28 28 28 32 39 41 43 46 48 47 46 40 35 43 48 48 49 47 48 46 47 48 48 45 45 46 49 50 51 52 53 54 56 57 59 60 59 58 59 63 64 64 65 65 64 64 64 65 66 66 65 65 64 63 63 63 64 65 65 66 66
38 32 31 29 35 35 41 42 44 44 46 47 38 30 32 43 49 48 49 47 47 45 47 47 47 46 45 46 49 49 52 56 58 59 60 63 65 65 66 64 61 64 67 67 65 64 65 65 65 66 66 65 66 65 64 63 63 63 64 64 65 66 66
36 38 33 35 37 43 46 44 44 45 49 35 28 29 38 48 49 49 48 47 48 48 46 46 45 48 49 51 51 52 53 54 56 60 63 64 65 65 65 66 67 65 65 64 64 64 65 65 65 65 64 64 64 64 63 63 63 63 63 64 65 65 65
35 35 35 34 37 42 44 45 46 48 42 35 34 45 49 51 51 51 51 50 50 49 49 49 49 50 51 54 54 53 54 56 57 58 61 63 63 64 66 65 64 63 63 63 63 63 64 64 64 64 64 64 63 63 62 62 63 63 64 64 65 65 65
40 38 35 34 32 40 45 45 48 49 41 42 47 50 51 54 51 50 50 51 51 51 51 52 53 53 52 52 52 53 53 53 54 56 58 60 63 64 64 63 64 63 62 62 63 63 63 63 64 64 63 63 63 62 62 62 63 63 63 64 64 65 65
38 37 34 35 39 44 46 47 45 48 48 48 50 48 46 50 47 45 46 48 49 50 49 49 49 51 51 52 52 51 53 54 54 55 57 59 61 63 64 63 63 62 62 62 62 62 62 63 64 64 63 62 63 62 62 63 63 63 64 64 64 64 64
43 40 43 47 49 48 46 46 47 48 49 49 50 47 46 45 46 48 45 46 47 47 47 48 48 48 51 52 53 51 53 55 56 56 57 58 60 62 63 63 63 61 61 61 61 61 62 63 63 63 63 63 63 62 62 63 63 63 64 64 64 64 64
47 47 49 50 48 51 47 47 48 45 46 47 47 46 46 47 47 47 46 46 46 46 46 45 47 48 50 51 52 53 52 54 56 57 56 58 59 61 63 62 61 61 61 61 61 61 61 61 63 63 63 62 62 62 63 64 63 63 63 64 64 63 63
40 41 48 48 48 47 51 48 49 49 50 49 49 48 48 48 48 49 49 48 48 47 47 47 48 49 50 50 52 54 55 55 56 57 57 58 59 60 61 63 63 61 61 61 61 60 60 61 61 62 62 62 62 63 63 63 63 63 63 63 64 64 63
42 45 51 50 47 47 46 48 46 46 47 51 53 52 52 51 50 49 49 49 49 50 49 50 49 50 52 53 54 54 55 56 57 57 58 58 58 59 60 61 61 60 61 61 60 60 60 60 62 63 62 62 62 63 63 63 63 63 64 63 62 63 63
49 49 49 48 48 47 46 45 45 48 50 48 47 50 50 49 48 47 46 46 47 48 49 51 50 49 51 52 54 55 56 57 57 58 58 59 59 59 60 60 61 61 61 61 60 60 60 60 61 60 60 60 61 62 62 62 63 63 63 63 63 62 62
43 44 44 44 41 43 49 49 50 48 47 47 47 47 46 46 46 48 48 49 48 47 48 49 49 49 50 51 53 54 56 57 58 59 59 59 60 60 61 61 61 62 62 61 61 60 60 59 58 56 57 58 60 60 60 60 61 62 62 61 61 61 61
44 48 47 47 47 46 49 49 49 51 47 46 43 44 45 46 48 46 45 44 45 47 49 50 49 48 49 50 52 51 54 56 58 60 60 60 61 61 60 61 60 60 61 62 61 60 58 57 56 56 56 57 57 57 58 58 58 59 59 60 60 60 60
47 46 45 44 44 42 44 47 46 46 46 45 44 45 45 47 45 44 44 45 44 45 46 48 50 48 48 49 49 49 49 51 55 59 60 61 61 61 61 59 59 60 61 61 60 59 57 56 56 56 56 56 57 56 58 58 57 58 58 59 59 58 57
42 46 42 43 44 45 46 47 47 47 50 45 44 44 45 44 44 45 44 45 46 45 45 45 47 49 48 48 49 49 49 50 54 56 59 61 62 59 59 58 59 60 60 60 58 56 55 55 55 55 55 56 57 57 58 58 58 58 58 57 55 55 55

ECMWFFLT2_sfc_dewp_009.txt.gz
Dewpoint
17 15 20 21 19 17 23 22 23 22 28 22 36 34 31 30 28 27 43 39 39 41 39 39 41 44 44 49 47 45 48 51 55 54 54 55 56 57 59 60 62 65 65 66 67 68 67 68 68 70 72 72 72 72 73 74 74 75 75 75 75 75 75
14 16 18 17 20 18 21 21 23 28 28 29 32 21 34 26 20 31 36 31 32 32 26 49 42 42 40 43 48 45 49 53 53 53 56 56 56 57 60 62 64 65 65 66 66 66 67 67 68 70 72 73 73 73 73 73 74 74 74 75 75 75 75
14 16 19 17 20 22 17 19 25 19 26 25 45 34 26 24 24 23 33 35 31 33 29 34 36 41 41 46 50 48 49 50 51 52 55 57 57 57 59 60 63 63 64 65 66 66 66 68 70 71 72 72 72 73 73 72 73 73 74 74 75 75 75
16 14 13 11 12 18 19 24 21 23 25 31 31 28 37 27 22 24 24 31 27 38 33 34 31 38 48 45 48 47 46 49 51 52 53 56 58 58 58 59 60 62 63 64 65 65 66 68 70 70 70 70 70 71 72 72 72 74 74 74 75 74 73
16 12 12 7 9 14 17 18 20 23 26 25 25 31 25 24 27 26 23 25 31 37 41 37 39 42 44 44 47 53 51 49 50 52 53 57 58 59 59 59 60 61 62 63 64 66 66 68 69 68 68 69 69 69 71 71 72 72 72 73 74 74 74
14 11 14 9 8 9 14 15 19 19 22 25 21 23 24 29 23 29 24 21 32 33 41 45 42 43 40 44 47 48 49 49 52 53 54 58 58 60 60 59 59 60 62 63 64 66 67 67 68 68 68 68 68 69 69 70 70 71 70 72 74 74 74
14 13 14 21 15 8 11 14 16 19 18 22 23 21 29 28 27 29 33 26 28 39 42 43 44 42 37 41 44 46 47 50 50 53 51 56 60 59 59 60 59 60 63 64 65 68 69 69 69 69 69 68 68 69 69 70 70 70 70 70 73 74 74
19 18 18 20 22 12 9 11 14 18 16 17 19 23 37 24 32 26 26 26 25 41 53 49 42 52 47 52 48 49 47 50 52 53 53 57 60 61 60 60 60 62 64 66 68 69 70 70 70 70 69 70 69 69 69 69 69 70 70 70 71 73 73
21 18 21 16 20 15 12 11 14 17 17 19 22 35 45 28 31 23 24 19 23 37 54 54 50 44 42 42 44 51 51 55 53 54 57 58 61 63 61 62 64 65 64 67 69 69 71 71 70 71 70 70 69 70 69 69 69 69 70 71 70 71 72
18 19 17 16 21 17 16 20 15 20 15 17 29 24 36 23 39 34 25 21 32 41 51 47 49 50 50 47 47 49 53 56 54 55 56 60 61 63 63 64 65 65 66 68 69 70 71 70 69 71 71 70 70 70 70 69 69 70 70 70 70 70 70
19 23 29 35 26 21 16 16 16 15 16 15 22 35 33 22 38 34 31 34 32 38 35 42 42 50 47 44 50 51 53 54 57 60 59 59 61 62 61 64 65 68 69 68 69 70 70 69 70 71 70 70 69 71 71 70 70 70 71 71 72 70 70
29 22 28 27 22 16 16 15 14 15 16 19 21 24 20 45 32 23 34 45 34 33 38 42 45 48 55 56 55 54 56 57 56 57 61 60 59 61 63 64 65 65 67 69 70 70 69 69 71 70 70 70 70 71 71 71 70 70 70 72 72 71 71
24 19 18 23 23 16 16 15 14 15 18 21 20 30 27 42 25 20 39 49 44 37 30 38 43 49 53 51 54 53 54 57 58 59 57 57 57 60 60 63 65 66 67 69 69 69 70 70 70 70 70 71 72 72 71 71 70 70 71 72 72 72 72
20 20 18 20 21 20 16 14 15 15 15 19 19 21 24 31 34 31 39 49 42 33 31 34 40 48 46 52 56 55 54 52 57 57 58 56 57 58 60 62 63 66 67 68 69 70 71 70 71 70 71 72 71 71 70 70 72 71 72 73 73 72 71
20 18 18 18 19 19 18 17 16 16 15 17 19 18 22 31 29 25 30 47 46 39 39 39 49 59 53 52 48 48 54 56 56 57 56 57 57 58 60 63 63 65 66 67 68 69 70 70 71 71 71 72 71 69 69 70 71 71 71 73 73 72 72
23 20 18 17 17 18 17 16 17 18 16 19 20 25 28 32 37 40 38 40 39 41 44 43 47 49 51 50 54 54 56 55 58 58 57 58 59 59 60 62 62 64 64 66 67 68 68 69 70 71 72 71 71 70 70 70 70 70 71 71 71 73 73
26 26 19 17 18 20 20 21 18 19 20 22 21 23 29 28 29 33 33 30 37 42 47 43 45 44 48 50 51 55 57 59 57 59 59 59 60 60 63 63 63 62 61 63 66 66 66 67 69 69 71 70 71 71 71 71 71 70 71 71 73 73 73
29 27 21 21 22 18 19 26 21 23 20 21 21 21 26 31 32 32 34 34 45 48 43 42 44 46 50 54 56 56 57 58 59 58 60 60 60 60 60 61 61 62 63 63 64 65 67 68 67 69 70 69 70 70 71 72 72 72 72 72 73 73 73
29 30 26 22 20 20 34 43 42 29 20 21 22 33 44 40 42 44 42 42 46 49 45 47 52 53 54 54 54 51 52 55 56 58 57 60 60 60 61 62 60 64 65 66 66 66 64 64 66 67 68 69 71 71 72 72 73 73 73 73 73 73 73
33 29 27 22 22 35 41 40 42 42 31 29 35 39 45 48 46 48 44 43 49 52 50 49 49 53 54 54 57 57 55 56 55 53 55 57 57 58 59 63 65 66 63 64 63 65 64 66 66 66 67 68 68 68 70 71 71 72 73 73 72 72 72
30 32 27 25 40 36 38 38 41 38 36 31 28 28 39 48 49 50 49 51 51 51 50 51 48 53 52 52 52 53 52 56 56 54 53 54 56 57 62 61 62 66 65 65 63 68 67 65 66 65 66 66 67 68 69 70 72 71 71 72 72 72 71
34 32 28 28 28 28 36 43 45 45 43 44 45 46 43 47 49 49 50 51 53 52 50 50 49 54 47 44 49 53 52 53 56 56 57 57 59 61 61 64 65 67 67 66 68 64 66 66 66 67 67 67 69 70 70 70 71 70 71 71 72 72 71
36 34 29 28 27 30 45 44 43 45 46 45 48 40 36 48 50 49 49 49 50 50 49 52 52 49 41 46 53 54 56 55 54 57 59 59 61 63 64 63 63 64 67 67 65 67 67 66 67 68 68 68 69 70 71 69 69 70 71 71 72 71 71
38 36 33 29 36 37 44 44 45 44 46 46 42 29 32 51 49 50 50 48 48 50 52 50 52 49 47 51 54 54 59 61 63 65 65 64 63 63 65 66 67 69 69 68 67 66 66 68 68 70 70 70 71 71 70 68 69 69 70 71 71 71 71
39 40 35 35 39 46 46 45 46 46 47 45 33 27 43 52 52 52 52 48 50 53 53 53 51 54 55 55 57 59 62 62 63 64 64 65 65 65 65 66 67 67 67 67 67 67 69 69 67 68 68 69 69 69 69 68 68 68 69 70 71 71 71
35 39 36 35 40 46 46 47 47 48 40 35 33 48 52 53 53 53 52 52 53 54 55 54 54 54 54 55 56 59 60 62 64 63 62 62 63 64 66 67 66 66 66 68 67 67 68 68 68 68 70 69 69 69 68 68 68 67 69 70 70 70 70
42 42 39 35 31 47 46 47 48 50 45 48 52 52 52 51 52 52 52 52 53 52 52 52 53 51 51 52 54 55 57 59 61 63 63 63 63 63 64 64 65 65 66 65 64 65 65 66 67 67 68 69 68 68 68 68 67 68 69 69 70 70 70
44 41 40 39 46 47 47 47 48 52 51 52 53 49 46 48 47 49 49 50 51 52 52 51 51 51 52 54 55 55 55 56 59 63 65 64 63 62 61 62 63 64 65 64 65 66 66 67 68 68 69 69 68 68 68 68 68 68 69 69 70 69 68
48 47 49 51 52 48 47 48 49 50 50 50 49 48 46 46 46 50 48 50 51 52 53 54 54 53 54 54 53 54 55 56 57 59 62 64 63 63 63 62 64 64 64 64 64 65 66 67 67 68 69 68 68 68 68 68 68 68 69 69 69 68 67
50 51 55 55 50 48 48 46 47 45 45 46 46 46 48 50 50 51 50 50 51 52 54 52 54 55 55 55 54 55 56 57 59 63 63 64 65 64 64 66 65 64 64 65 65 65 66 66 66 68 69 68 69 69 67 67 68 68 68 68 68 67 67
45 43 48 52 51 49 48 48 47 48 48 48 50 52 52 51 50 50 52 52 53 54 55 55 55 55 55 56 58 60 61 60 61 60 62 63 64 65 65 66 66 66 64 64 64 64 64 64 64 64 66 67 69 68 67 67 67 68 68 67 66 66 66
48 47 51 49 51 51 49 49 50 48 48 48 49 50 51 51 50 50 51 51 52 53 54 56 56 56 57 58 59 57 60 61 62 63 64 64 64 65 65 65 66 66 66 64 65 65 67 66 65 64 64 65 66 66 64 64 65 68 67 66 65 65 64
52 51 51 50 50 50 51 48 48 49 49 48 50 49 49 48 48 50 50 50 50 51 52 55 57 57 58 58 59 56 60 62 63 64 65 66 66 67 65 64 65 66 67 66 67 67 67 66 66 65 65 64 64 65 64 64 66 66 65 65 65 64 64
46 45 48 47 45 49 53 50 50 49 50 48 48 49 49 49 51 51 49 49 50 50 52 53 53 54 55 56 58 57 59 61 64 65 65 65 66 66 66 66 67 66 66 66 66 66 66 66 65 65 65 65 65 63 64 64 65 66 66 64 65 64 63
44 48 50 54 53 52 54 55 54 53 52 54 51 49 48 47 49 51 51 49 50 50 51 52 52 54 54 54 54 52 54 58 61 63 65 65 65 65 65 65 65 66 67 66 66 65 65 64 63 63 64 64 65 63 65 65 64 66 66 66 64 64 64
46 48 48 50 50 48 50 50 51 53 55 53 50 52 52 52 51 49 48 49 49 52 51 50 51 50 50 50 50 51 52 53 56 58 61 63 64 64 63 63 65 65 65 65 65 65 65 63 62 63 62 63 65 63 65 66 66 67 67 65 65 64 63
44 47 47 48 49 50 51 48 50 50 49 49 53 52 51 52 51 53 53 53 49 47 50 49 51 51 50 48 50 50 50 50 53 54 57 60 60 62 62 62 63 65 65 64 65 65 63 62 62 62 62 63 64 63 65 66 66 66 66 65 63 63 64

ECMWFFLT2_sfc_dewp_015.txt.gz
Dewpoint
9 6 7 4 1 2 10 12 16 17 21 22 26 26 23 24 24 25 30 28 30 31 30 30 35 34 34 34 32 31 33 32 39 38 47 53 52 51 54 57 59 61 61 64 64 65 64 65 65 65 68 68 70 70 71 73 74 75 75 76 76 76 76
13 11 8 5 -1 1 14 15 15 17 20 20 26 21 27 24 21 24 20 22 26 26 23 32 34 33 32 34 34 28 33 32 32 35 40 51 53 54 55 59 62 62 61 63 63 63 64 65 65 67 69 69 69 69 70 72 74 75 75 75 76 76 76
16 14 10 7 3 3 6 8 12 12 18 20 25 26 21 21 22 23 23 21 21 24 29 32 35 32 32 37 37 33 28 29 33 35 39 47 53 54 55 57 60 61 61 62 64 62 62 64 68 68 67 67 68 68 69 71 74 73 73 73 75 76 76
13 14 10 10 4 2 2 3 8 13 16 20 23 24 25 26 22 23 22 22 22 29 26 30 33 34 33 33 34 31 28 29 29 35 36 42 50 53 53 56 58 61 61 61 62 62 61 64 67 66 65 66 66 66 69 70 72 74 73 73 75 76 76
10 12 12 9 7 3 -0 -3 3 12 16 16 19 19 20 23 25 23 23 21 26 30 26 25 32 33 34 33 32 34 31 31 27 31 35 39 49 54 55 57 59 60 62 61 62 62 60 62 65 65 64 65 65 65 67 68 70 71 70 71 72 76 76
11 11 12 9 6 4 -1 -5 -3 7 14 17 15 19 18 20 20 23 21 23 31 26 22 28 26 31 31 34 32 32 31 27 39 36 34 40 45 56 57 55 57 59 62 62 62 62 60 59 62 63 62 63 64 63 63 64 63 67 67 69 72 75 76
10 10 9 10 8 6 2 -3 -3 4 10 17 20 20 22 19 18 19 23 23 27 31 30 31 30 31 29 31 28 30 29 33 31 33 27 41 55 57 55 55 54 57 62 63 63 65 63 61 63 64 61 59 60 60 60 62 61 63 64 65 69 75 76
12 12 11 11 10 7 2 0 0 -2 -1 7 16 18 23 20 23 22 21 26 23 28 38 34 29 38 30 32 30 34 31 31 33 33 33 56 55 60 57 56 51 57 61 64 67 67 67 66 67 65 60 58 57 57 58 60 60 60 61 61 65 72 76
20 13 15 10 8 7 3 -1 2 -1 -2 9 12 18 27 24 18 19 21 21 22 29 34 34 32 30 29 29 28 32 33 34 29 31 39 44 50 60 59 59 58 60 60 65 68 69 71 69 63 66 62 57 56 57 56 56 59 58 59 61 62 70 74
19 18 15 14 12 8 6 5 2 5 5 9 7 8 24 19 31 33 24 23 27 29 37 31 29 30 35 33 32 26 32 36 30 32 34 57 56 64 64 63 59 60 65 68 71 71 72 68 64 70 68 58 55 56 57 56 57 58 58 59 60 67 72
23 21 28 20 17 9 7 4 3 -2 0 1 4 15 18 14 25 27 31 31 25 28 26 30 29 29 29 31 34 32 32 30 34 47 62 58 61 65 63 63 62 66 69 69 70 71 68 66 67 67 65 61 55 62 61 56 57 58 61 60 64 63 70
29 23 23 16 17 13 9 5 3 0 -2 3 10 12 12 29 19 20 30 36 26 25 30 30 33 30 35 35 37 34 33 34 32 37 66 67 63 65 65 64 64 65 67 69 70 70 69 68 69 68 67 64 62 62 60 59 56 56 59 63 64 64 68
24 22 20 18 17 17 14 7 5 4 3 3 6 18 12 24 17 16 28 34 32 29 25 26 30 33 34 28 33 33 33 31 38 47 45 56 61 64 64 66 67 66 65 69 70 69 70 70 70 69 68 68 69 67 65 65 58 57 63 66 67 65 68
25 24 22 20 16 16 17 13 11 11 8 5 2 1 4 9 27 22 21 32 26 23 24 23 23 30 30 29 34 35 34 28 42 37 39 30 38 56 64 67 66 68 68 70 71 71 72 71 71 69 70 71 69 68 67 65 64 60 63 67 71 69 69
24 23 23 21 19 19 16 18 16 14 12 11 9 4 2 11 12 7 12 27 29 27 31 27 27 31 28 32 31 29 37 35 31 33 30 33 37 43 55 67 67 68 69 71 72 72 72 71 71 71 72 71 70 67 67 66 67 62 61 71 70 71 72
28 27 26 25 21 18 18 16 17 17 14 15 12 15 10 11 18 18 12 20 20 23 24 27 32 33 33 31 34 34 35 31 37 37 35 37 41 40 41 57 68 69 69 71 72 71 70 70 71 72 73 71 69 67 67 67 66 64 64 69 71 74 74
32 30 28 26 25 27 25 22 19 18 17 17 15 14 17 13 8 11 14 16 20 23 25 25 29 30 33 32 29 33 38 47 39 38 38 36 35 38 51 55 68 68 68 70 73 71 70 70 71 71 73 70 71 70 71 70 69 66 67 71 75 75 75
31 29 27 27 28 25 24 27 24 23 19 15 14 10 12 18 18 17 17 18 24 23 22 23 26 27 34 37 41 41 41 41 46 36 38 35 34 32 40 53 59 68 69 70 72 72 73 72 70 71 72 71 71 69 70 70 70 71 72 73 75 75 76
32 33 32 30 27 25 32 28 26 25 22 21 20 18 14 16 19 18 17 19 23 26 24 25 28 32 31 32 32 31 28 39 36 40 34 42 42 43 56 59 55 64 71 71 73 72 70 69 70 70 70 70 71 69 70 70 73 75 73 74 75 76 76
36 35 34 31 28 34 29 26 25 26 22 21 21 22 21 18 17 24 22 21 21 26 25 24 28 32 25 22 35 40 30 30 31 25 31 36 36 49 54 60 64 68 69 70 70 72 70 69 69 68 69 69 68 66 68 70 71 72 73 74 74 75 75
34 34 33 30 36 30 29 27 30 28 30 29 25 28 26 24 22 22 24 26 24 21 22 23 25 29 23 30 31 26 24 33 29 26 29 27 44 46 53 59 64 70 69 70 70 73 70 68 69 68 69 68 68 67 69 70 72 72 73 74 75 75 74
35 34 32 31 29 28 31 49 44 40 40 39 39 42 36 35 33 25 24 27 29 25 21 25 28 32 30 28 28 27 15 24 30 31 35 36 38 34 47 62 64 71 70 69 70 70 69 68 68 69 68 69 70 70 71 72 72 72 73 74 75 75 74
36 35 33 31 31 32 46 47 45 44 43 39 42 34 27 34 34 31 24 21 27 26 27 28 31 30 28 30 36 40 38 35 33 38 39 43 39 44 52 59 64 68 69 69 69 70 69 67 68 70 69 69 69 71 71 70 71 71 74 75 75 75 73
34 35 33 30 33 33 47 44 43 42 41 41 38 32 29 36 30 29 30 25 23 26 33 30 31 32 31 31 38 34 30 28 33 45 51 49 44 46 52 57 65 69 71 71 70 67 66 69 70 73 70 69 70 70 71 70 70 72 74 75 75 75 74
32 35 33 33 36 45 44 43 46 42 41 40 37 30 39 55 55 54 55 54 32 31 33 33 29 35 36 42 42 52 47 33 45 51 54 53 51 50 51 57 67 67 68 68 67 66 69 72 69 68 66 68 70 72 72 72 72 72 73 75 75 75 73
29 31 30 31 34 44 43 45 40 42 40 37 33 51 56 56 52 54 53 54 54 50 38 34 33 32 33 39 38 52 58 59 61 60 59 59 59 58 59 66 68 68 65 69 67 65 69 67 65 66 70 72 72 72 71 71 72 73 75 75 75 74 73
28 32 31 29 30 49 46 45 40 43 40 38 51 53 51 50 52 52 55 55 54 50 47 41 41 40 30 38 48 50 60 63 63 62 61 62 61 64 68 68 67 64 66 65 63 64 64 64 67 71 72 72 71 71 71 73 74 76 76 75 74 73 73
27 27 29 30 33 47 45 44 39 48 50 54 55 53 46 50 51 53 54 55 58 56 53 52 47 43 47 53 56 61 63 62 63 64 65 66 67 67 65 64 65 65 67 67 69 69 67 71 72 72 74 74 74 74 74 76 76 75 76 75 74 73 73
32 30 32 52 49 46 42 46 50 50 51 51 51 50 49 51 52 54 54 56 57 56 59 59 58 59 60 62 62 63 63 64 65 66 67 67 66 64 64 63 68 69 70 69 68 70 70 72 72 73 74 74 75 75 75 75 75 75 75 75 73 72 71
51 49 51 48 48 46 43 41 44 44 47 49 51 50 52 54 55 54 54 55 53 55 59 58 59 58 59 60 60 61 62 63 64 65 65 65 65 65 65 67 67 66 66 68 69 70 72 73 74 75 75 75 75 75 74 74 74 74 73 72 72 71 70
45 43 50 50 51 47 46 47 47 46 47 49 52 54 54 55 54 55 57 57 57 56 56 57 58 58 59 60 60 63 64 63 63 62 63 64 64 64 64 65 67 65 64 62 63 64 65 66 67 68 70 71 73 73 74 73 73 74 73 73 71 70 69
46 48 52 51 51 52 49 48 47 46 46 49 51 53 54 55 54 54 55 56 54 54 56 56 57 55 55 57 60 60 62 64 66 67 68 67 62 63 64 63 63 62 62 61 61 62 64 64 65 67 68 69 70 70 70 71 73 73 72 71 69 69 67
47 51 50 50 52 52 52 52 52 50 49 48 47 48 51 52 51 51 52 54 58 59 58 59 59 58 58 58 60 60 61 61 61 63 66 67 68 69 70 70 69 68 68 67 68 67 67 66 65 66 66 65 66 68 69 71 72 71 69 68 68 67 66
45 46 50 48 45 48 51 51 51 51 51 50 50 50 49 49 49 49 48 50 51 51 52 52 53 55 57 59 61 61 63 65 64 62 61 61 61 63 65 67 67 68 69 70 69 69 68 68 66 65 65 66 66 66 69 70 70 69 69 67 66 64 64
50 49 54 56 55 54 53 53 54 51 51 51 50 50 50 50 51 50 50 50 51 51 51 53 52 52 52 53 55 56 58 61 63 64 63 62 62 63 64 64 65 66 66 67 67 67 66 66 64 63 64 62 65 66 69 70 69 70 69 67 64 64 64
53 53 52 52 50 51 54 55 54 52 54 51 49 50 49 49 49 48 49 50 52 53 52 52 53 52 51 51 50 52 54 55 57 59 60 62 63 64 65 66 68 68 68 67 66 66 65 65 64 64 62 64 67 67 70 70 70 70 69 67 65 63 62
54 55 55 54 54 53 53 54 54 55 56 55 54 53 52 50 49 49 49 50 50 51 52 52 51 52 52 51 51 51 51 50 52 53 57 59 57 59 61 63 66 68 68 67 67 67 67 66 66 65 65 66 68 67 69 69 69 69 68 66 62 61 63

ECMWFFLT2_sfc_dewp_021.txt.gz
Dewpoint
14 15 17 15 14 6 5 1 1 1 8 12 25 29 28 28 22 20 32 32 31 32 35 36 35 35 36 37 38 39 42 44 45 46 47 48 47 48 50 53 54 57 60 59 59 61 62 64 65 65 66 66 67 69 70 71 72 72 73 73 73 73 73
15 14 16 14 13 8 7 -0 2 16 15 16 21 19 23 19 21 23 19 21 29 24 25 34 35 34 34 35 36 35 37 43 46 46 48 48 48 51 53 53 54 55 60 61 60 61 62 63 64 65 66 66 68 69 70 71 71 72 73 73 73 73 73
14 14 14 12 11 7 3 10 9 5 15 8 23 27 19 18 16 17 23 20 22 31 36 30 32 34 35 36 36 35 36 41 46 47 47 48 50 52 54 54 55 56 57 60 61 60 61 63 65 65 66 66 68 69 70 71 71 72 72 73 73 73 73
14 13 12 11 8 5 5 6 6 8 9 14 13 20 22 26 21 22 16 21 28 32 29 33 34 33 34 34 36 36 35 40 43 46 48 49 51 52 53 53 54 56 56 57 60 60 60 63 64 65 66 66 67 69 70 71 71 72 73 73 73 73 73
14 13 13 11 8 7 5 5 6 7 9 12 10 16 13 19 21 22 24 20 25 34 31 29 36 34 34 33 36 38 36 39 39 44 47 50 51 51 52 52 52 55 56 57 58 60 61 63 65 65 65 65 66 68 70 70 71 72 72 73 73 73 74
13 14 15 12 10 8 7 6 5 6 5 11 7 9 11 11 16 20 17 17 33 31 26 36 33 36 34 35 37 39 37 38 39 43 46 49 50 51 51 50 50 52 57 57 58 59 60 63 65 64 65 65 65 67 69 70 71 71 72 72 73 73 74
11 14 15 14 12 11 9 7 6 6 5 7 16 14 18 12 12 15 25 21 27 35 36 31 35 43 34 36 39 39 37 35 37 42 46 48 49 50 50 50 50 53 56 57 58 60 60 62 64 64 65 65 65 66 68 69 70 71 71 72 73 73 73
16 14 14 14 13 11 9 8 7 6 4 3 3 15 26 22 22 14 19 21 22 28 30 35 41 47 38 35 37 38 37 35 34 36 47 49 49 50 49 49 50 54 57 58 58 60 61 62 64 64 65 65 65 65 67 68 69 70 71 72 72 73 73
18 18 21 12 12 11 10 9 8 7 6 4 3 5 34 16 18 21 18 15 23 35 39 46 37 44 31 35 35 37 37 37 35 35 46 49 50 50 50 49 50 55 57 58 59 61 62 63 64 64 64 64 64 64 65 67 68 70 70 71 72 73 73
15 17 16 17 11 10 11 11 8 7 5 4 4 2 16 22 29 23 20 24 31 31 26 27 43 36 41 42 34 35 36 38 35 35 50 49 49 51 52 52 54 54 57 58 60 62 64 64 64 65 65 64 64 64 64 66 67 68 69 70 71 72 73
18 19 31 38 29 12 11 11 11 8 5 5 5 15 13 10 33 29 23 24 33 35 29 20 32 38 35 29 43 36 39 46 47 54 55 49 52 54 52 52 54 55 58 59 62 63 64 64 64 65 65 64 64 64 64 64 66 67 68 70 71 72 72
23 29 29 22 25 17 12 12 12 12 10 8 6 7 4 18 20 19 31 38 23 21 23 34 34 32 35 44 43 38 45 53 50 52 52 58 53 52 51 51 52 56 58 60 62 63 63 64 65 66 65 65 64 64 63 64 65 67 69 70 70 71 72
17 17 19 21 19 19 15 13 13 12 12 11 7 12 9 26 14 12 26 40 40 27 19 18 30 40 31 41 39 32 36 54 56 55 53 53 52 50 50 52 55 59 60 62 62 63 62 63 63 65 66 65 65 64 63 64 65 66 68 70 70 71 72
18 15 14 15 17 17 15 11 11 11 11 10 10 11 9 11 29 23 18 36 37 39 34 30 35 44 38 43 46 38 41 54 55 57 56 52 53 53 53 56 58 59 60 61 63 63 64 63 63 64 66 66 65 64 63 63 64 65 67 69 70 70 71
17 16 15 14 13 13 15 15 11 10 10 10 10 9 10 20 12 13 18 25 24 25 34 33 36 44 44 47 42 43 43 52 53 55 55 55 56 58 60 61 60 59 59 61 63 65 66 65 64 64 66 66 65 64 63 63 63 63 65 68 68 69 70
27 20 16 15 16 16 14 15 17 11 10 10 9 11 9 13 26 33 25 28 26 28 33 31 29 40 44 40 48 41 47 49 52 51 52 58 58 59 62 62 62 63 62 63 63 65 66 66 66 64 65 66 65 64 64 63 62 62 63 66 67 67 68
30 27 25 18 17 18 16 16 16 19 12 12 13 12 16 13 9 12 21 23 29 32 41 33 30 28 30 39 42 44 51 48 41 41 44 51 56 60 60 61 62 62 64 67 68 66 66 67 67 65 65 66 66 65 64 63 63 61 62 64 65 66 67
30 26 23 25 25 16 16 21 19 21 20 22 12 12 16 14 10 11 12 23 38 45 43 27 23 20 19 30 41 40 37 50 50 46 39 33 42 51 59 61 62 63 63 66 70 69 68 68 67 66 66 65 65 65 64 63 62 61 61 62 64 65 66
29 30 34 28 25 26 29 23 21 21 21 21 22 27 21 17 21 11 17 20 18 17 22 35 39 43 41 40 39 48 43 42 49 46 47 52 54 51 60 62 62 63 63 64 68 70 69 69 68 68 66 65 65 65 64 62 61 61 60 62 63 64 65
29 33 30 24 25 39 32 30 32 39 32 29 34 29 27 33 31 37 36 41 41 47 44 41 43 45 50 45 50 53 48 48 53 51 47 49 51 51 55 63 64 64 64 65 66 68 69 69 69 68 67 66 66 64 63 62 60 59 58 62 63 63 64
24 25 26 26 38 30 33 29 38 32 36 38 36 30 36 44 42 43 44 42 44 47 49 50 48 45 39 34 35 43 40 43 42 40 42 41 43 44 51 57 63 66 66 65 65 68 68 68 68 68 68 67 67 66 64 63 61 58 58 62 64 63 64
29 26 24 26 27 25 30 41 35 33 34 38 42 45 42 50 49 48 47 48 50 50 52 52 49 45 39 38 34 34 28 28 35 35 32 26 31 38 38 52 63 66 67 66 66 67 68 68 68 68 68 68 68 67 66 65 64 62 59 62 66 65 65
33 28 24 21 23 28 37 44 41 40 41 38 46 43 39 51 52 50 49 52 55 56 55 53 51 43 39 41 39 38 37 28 16 15 24 25 27 40 44 43 65 67 67 67 67 69 68 68 68 68 68 68 68 68 68 66 67 66 63 63 67 67 67
39 37 25 25 30 34 47 41 34 38 37 37 39 31 35 53 51 50 51 53 55 57 58 56 52 51 48 49 50 51 43 44 45 30 21 55 57 57 58 58 57 69 70 70 70 70 69 68 68 69 69 69 68 68 68 67 67 67 68 69 70 69 71
38 39 37 32 36 52 50 45 42 44 40 43 35 32 46 56 52 52 53 54 55 56 56 57 56 57 58 61 62 63 61 56 60 61 58 58 57 56 56 60 65 68 71 70 70 70 70 70 69 69 69 69 68 69 69 68 67 67 71 73 73 75 76
36 37 37 36 38 46 48 49 43 46 41 36 36 51 57 56 53 54 54 53 53 55 57 58 60 60 62 63 63 64 64 64 64 64 64 63 60 60 65 70 66 62 68 70 70 70 71 71 70 69 69 69 69 70 69 68 68 68 74 75 75 76 76
32 47 42 36 29 42 43 51 48 50 45 47 54 55 54 55 55 55 55 55 55 57 58 60 61 61 61 62 62 63 63 63 64 65 66 65 65 63 63 65 66 68 64 68 69 70 71 71 70 70 69 69 70 70 69 69 69 73 75 75 76 76 76
42 38 36 35 38 51 45 42 41 52 54 59 58 53 52 54 55 55 56 57 59 60 60 60 61 61 61 61 61 61 62 63 64 65 66 65 65 66 66 66 68 67 70 69 68 69 72 72 71 70 70 70 70 70 70 70 73 75 75 76 76 75 74
48 45 47 49 51 53 51 53 52 54 55 55 54 53 53 54 55 57 57 59 60 61 61 61 61 60 60 60 60 60 61 62 63 63 65 66 67 67 66 66 66 65 67 67 67 67 70 72 71 71 71 71 70 70 71 74 75 75 75 75 75 74 74
54 52 53 56 54 55 56 54 54 54 52 54 55 54 53 52 52 53 54 58 61 61 62 60 60 61 62 62 61 61 61 62 63 63 64 64 65 67 68 67 65 64 64 66 67 67 68 69 71 71 71 71 70 71 75 74 75 75 75 74 73 73 73
45 42 54 54 54 55 56 54 54 52 53 53 53 52 51 51 50 51 51 52 56 60 60 60 60 61 62 62 62 62 61 62 62 63 63 63 64 65 67 67 66 66 66 67 67 67 67 68 67 72 72 72 73 75 75 75 74 74 73 73 72 72 71
49 48 54 56 56 56 53 53 51 52 52 52 52 51 50 50 50 50 50 50 51 52 54 58 58 58 59 60 61 62 62 62 62 63 64 64 64 65 66 67 67 66 65 65 65 66 66 66 67 68 70 73 75 74 74 74 73 72 72 71 71 71 70
49 50 54 55 56 55 52 54 56 52 50 50 49 48 48 48 49 49 48 48 49 50 51 51 52 53 56 58 59 60 62 62 62 63 64 64 64 64 65 66 67 67 66 64 64 65 65 65 66 67 68 69 70 70 71 71 69 69 69 69 69 69 69
45 49 51 54 51 51 54 51 54 56 51 48 48 49 50 50 50 50 48 46 47 48 50 50 50 50 50 51 52 53 55 60 63 63 64 64 64 64 65 66 67 67 67 66 66 67 66 66 65 66 67 69 70 70 70 69 69 69 69 69 69 68 67
47 51 54 56 56 56 55 56 55 54 54 54 50 50 50 51 52 51 49 46 45 47 49 50 50 49 50 50 51 50 51 52 57 63 64 64 64 65 65 65 66 66 67 68 66 65 65 66 66 67 67 69 69 69 70 70 69 68 67 68 68 66 65
53 54 55 57 56 55 56 56 55 53 53 50 49 50 50 51 50 49 48 47 47 47 47 48 50 50 48 48 50 50 49 50 52 53 54 58 64 65 65 66 66 66 67 67 65 65 66 66 66 65 67 67 68 68 68 68 68 68 67 68 66 65 64
52 57 57 57 58 58 59 57 56 57 54 53 52 51 50 50 49 50 49 50 50 48 48 48 49 49 48 47 48 50 50 50 52 54 55 56 56 58 63 66 66 66 67 68 68 67 66 65 66 67 68 68 67 68 68 68 68 67 66 65 64 63 63

ECMWFFLT2_sfc_dewp_024.txt.gz
Dewpoint
16 16 18 15 8 7 9 4 3 4 13 7 19 33 29 30 26 18 33 31 31 34 30 38 38 38 39 42 44 44 44 45 47 48 47 46 47 48 49 50 51 52 53 56 58 58 60 63 64 64 65 66 67 68 69 70 70 71 71 72 72 71 71
18 17 17 16 11 13 9 4 6 9 11 9 12 10 16 12 15 21 20 19 27 24 24 33 37 38 38 40 43 44 44 45 45 46 48 48 47 48 50 51 52 52 52 55 57 58 59 62 63 64 65 65 67 68 69 70 70 70 71 71 72 72 71
17 19 18 16 16 11 4 6 9 3 11 7 19 20 8 10 11 16 20 21 26 28 29 36 36 37 38 40 41 42 44 44 45 45 47 48 48 48 49 50 52 52 53 54 56 57 59 62 64 64 65 66 66 68 69 70 70 70 71 71 72 72 72
16 17 17 15 15 15 12 9 6 6 10 5 12 13 22 18 16 16 15 23 20 32 29 35 34 37 37 38 39 40 41 43 44 44 45 47 49 49 49 50 51 52 53 53 54 56 58 61 63 64 65 65 66 67 69 70 70 71 71 71 72 72 72
15 15 16 15 14 14 14 11 9 12 11 17 4 20 9 18 23 20 18 15 24 32 36 34 33 36 37 37 38 40 40 41 43 44 44 46 49 49 49 49 51 52 53 54 54 56 58 60 63 64 64 65 65 66 68 69 70 70 71 71 71 72 72
13 13 16 15 14 14 13 12 11 9 5 14 5 6 9 20 19 20 19 14 30 33 36 36 33 35 36 37 37 38 39 39 42 43 44 45 47 49 49 49 50 51 54 55 55 56 58 60 62 64 64 65 65 66 67 69 70 70 71 71 71 72 72
12 13 15 16 14 14 13 12 11 10 7 16 14 10 24 19 13 26 28 20 21 31 34 34 36 37 35 36 36 37 37 37 40 43 44 45 47 48 49 49 49 50 53 56 57 57 59 60 62 64 64 64 65 66 67 68 69 70 70 71 71 72 72
16 15 15 16 16 13 12 11 11 7 5 6 9 22 28 12 23 14 16 18 17 31 39 35 34 40 36 35 35 35 35 36 40 44 44 45 47 48 49 49 49 50 52 56 59 59 60 61 63 64 64 64 65 65 66 68 68 69 70 71 71 72 72
15 14 15 14 17 14 11 10 10 8 7 7 9 15 33 20 19 13 12 10 15 35 34 24 24 43 40 35 35 37 36 37 38 44 46 47 48 48 49 50 50 51 52 55 58 60 60 62 63 64 64 64 64 65 66 67 68 69 70 71 71 71 72
14 13 11 12 14 14 12 10 9 8 6 6 10 7 17 13 26 26 19 14 30 36 35 21 17 21 42 39 36 36 37 38 37 42 47 48 49 50 50 50 51 52 55 57 58 60 61 62 63 64 64 64 64 65 66 67 68 69 70 70 71 71 71
14 16 25 33 30 15 12 10 9 7 7 6 7 15 14 10 27 23 25 31 29 25 26 21 14 15 16 32 37 38 37 38 39 41 46 48 50 51 50 52 52 54 57 58 58 59 60 61 63 64 64 64 64 65 66 67 68 69 70 70 71 71 71
18 16 18 17 20 13 12 11 9 8 7 8 8 10 8 28 18 12 24 37 27 26 29 27 20 16 23 36 36 36 39 42 40 44 46 55 49 50 51 52 52 55 57 58 59 59 59 60 62 64 64 64 64 65 65 66 68 69 69 70 71 71 71
17 15 14 13 17 18 13 12 11 8 8 9 8 13 13 22 12 11 21 36 30 26 22 24 25 26 31 33 38 38 38 40 46 51 48 48 48 49 50 51 52 54 57 58 58 59 60 60 61 63 64 64 64 65 65 66 67 68 69 70 70 71 71
17 15 15 14 12 15 19 13 11 10 8 8 8 9 12 14 22 22 27 37 31 32 29 26 25 28 31 31 41 41 44 44 47 50 49 48 48 49 50 51 52 54 57 58 58 60 61 61 61 63 64 64 64 64 64 65 66 68 69 70 70 71 71
23 16 16 15 14 15 16 18 13 11 10 8 8 8 10 17 13 15 18 26 26 28 35 33 36 41 46 42 42 40 44 48 46 45 47 48 48 48 50 51 51 53 56 58 59 60 61 62 62 63 64 64 64 64 64 65 66 67 68 69 70 70 71
26 18 15 15 15 14 15 17 17 13 11 11 10 11 10 15 23 24 23 26 23 30 30 27 28 41 36 35 42 45 49 53 55 51 48 48 48 48 49 50 51 53 55 57 59 60 61 62 63 63 64 64 64 64 64 64 65 66 67 68 69 70 70
29 27 17 14 14 15 14 14 14 16 18 15 13 13 19 16 19 20 19 17 26 27 34 25 23 31 34 34 41 43 49 54 55 53 52 51 51 50 51 53 54 54 55 57 59 60 60 61 63 63 64 64 64 64 64 64 64 65 66 67 68 69 70
30 29 27 15 14 13 14 20 16 17 15 16 15 13 14 16 15 16 19 19 29 33 36 28 23 27 34 36 41 43 47 52 54 54 53 53 53 52 52 53 53 55 56 57 59 60 61 61 62 63 65 64 65 65 64 64 64 65 66 67 68 69 69
30 29 29 20 14 15 35 32 20 18 17 19 19 32 32 25 27 20 22 24 31 35 31 30 28 31 36 40 37 38 42 50 52 54 54 53 54 53 53 54 55 55 56 57 58 59 60 61 61 63 64 65 65 65 65 65 64 65 65 66 67 68 69
33 31 29 19 17 36 39 31 31 32 21 21 30 38 42 45 35 34 44 44 44 43 44 42 41 40 42 45 48 49 47 44 46 48 51 53 54 54 54 55 55 56 55 55 56 58 61 62 62 62 63 64 65 64 65 65 64 64 65 66 67 68 69
31 30 28 26 36 34 32 28 34 32 33 24 23 34 43 49 51 43 44 48 49 50 51 50 48 44 41 40 49 54 59 57 45 48 45 44 51 54 55 55 54 55 55 56 57 60 61 63 63 63 62 63 64 65 65 64 64 64 64 65 65 67 68
38 32 28 26 24 25 30 41 41 38 36 34 38 44 44 50 52 51 53 53 54 52 51 49 47 46 34 42 49 56 61 63 54 55 44 43 47 49 52 57 59 62 63 61 60 62 64 64 65 65 64 63 64 64 65 65 64 64 64 64 65 66 67
37 36 27 24 26 30 39 36 42 40 39 41 43 45 44 49 54 53 56 56 56 52 52 53 51 44 45 46 52 59 63 64 63 64 64 54 34 42 50 54 57 59 61 62 62 65 66 66 66 66 65 64 64 64 65 64 64 64 64 63 64 64 66
38 37 32 25 30 41 47 49 49 46 40 38 34 36 42 48 53 54 56 56 56 56 57 58 57 51 50 53 58 62 63 64 65 65 65 64 62 61 64 61 57 61 63 64 64 63 65 67 68 68 67 66 65 65 65 64 64 64 64 64 64 63 64
40 39 35 33 41 48 49 50 51 51 45 37 29 28 41 53 54 55 56 56 58 58 58 58 57 58 59 60 62 62 63 64 64 65 66 66 66 65 65 66 67 65 65 65 64 63 64 66 67 68 68 67 66 66 65 65 64 63 63 64 64 63 64
41 41 37 39 41 48 49 50 51 50 41 27 36 48 54 55 55 56 56 58 59 60 60 60 61 61 62 62 62 62 63 63 64 64 65 66 66 67 67 67 66 66 68 67 65 64 64 65 66 67 68 68 67 67 66 65 65 64 64 63 63 63 63
46 44 39 34 29 44 50 51 48 51 44 45 50 54 55 57 57 58 59 59 60 61 60 60 60 60 60 60 61 61 62 63 63 63 64 64 65 67 67 65 65 66 67 68 69 68 69 69 69 69 68 68 68 67 67 66 66 65 64 63 63 63 64
42 42 38 39 48 49 51 52 49 51 53 55 56 55 55 57 59 60 60 61 61 60 60 60 60 60 60 60 61 61 62 62 63 63 63 64 65 66 66 65 66 66 66 66 66 68 69 70 70 70 69 69 69 68 68 69 68 67 66 66 64 64 66
48 44 48 53 51 52 52 54 54 54 52 52 54 54 54 56 58 60 60 60 60 61 61 61 61 60 61 60 61 61 61 62 63 63 63 63 64 65 65 65 66 66 67 67 67 68 69 69 69 69 69 69 68 68 69 71 72 72 71 71 69 68 69
54 53 53 55 54 54 54 54 55 53 51 50 51 52 52 52 55 59 59 60 60 60 61 60 60 60 60 61 61 61 62 62 63 63 63 63 64 65 65 65 65 65 66 67 67 67 67 68 69 69 69 69 68 67 69 71 73 74 74 73 72 71 72
44 39 54 54 54 54 53 54 55 55 52 49 50 50 51 51 52 53 54 57 57 57 57 56 56 56 57 58 60 61 61 62 62 62 62 63 63 64 65 65 65 64 64 65 65 66 66 67 68 68 68 69 69 68 69 71 72 73 72 73 72 73 73
48 47 53 53 55 55 55 54 54 54 54 51 50 49 48 49 50 50 51 51 50 51 51 51 51 51 51 52 53 55 57 60 61 62 62 62 63 64 65 65 65 64 64 64 64 65 65 66 67 68 68 68 68 69 70 73 73 72 71 70 71 70 71
51 52 54 52 54 53 53 54 54 55 54 52 52 50 47 47 48 49 49 50 49 49 50 50 50 49 50 51 52 53 54 55 57 58 60 61 62 63 65 65 66 65 64 64 64 65 65 66 67 68 68 68 68 68 69 70 69 68 67 66 67 67 67
45 48 50 52 49 48 52 55 55 55 55 55 52 49 47 46 46 47 47 47 48 48 48 48 48 48 49 50 51 52 54 55 56 57 58 60 61 62 65 66 66 65 64 64 64 65 65 66 67 67 67 67 68 68 68 68 68 67 67 67 67 67 67
45 51 52 54 55 55 54 55 56 56 57 54 53 52 48 46 46 45 44 45 46 47 47 48 48 48 49 50 50 50 51 52 54 56 58 60 61 63 64 65 65 65 64 65 65 65 65 66 67 67 67 67 67 68 68 68 68 67 67 67 67 66 66
52 53 55 56 56 54 54 55 55 56 56 56 53 54 51 49 48 47 46 46 45 47 48 49 50 50 50 51 50 49 50 50 51 53 56 59 61 62 63 64 65 66 66 64 64 65 65 66 66 66 67 67 67 67 67 67 67 66 65 65 65 65 65
51 55 55 56 56 56 56 56 56 57 57 57 54 55 53 52 51 52 51 51 50 48 48 49 50 51 51 51 52 51 50 50 50 52 55 57 59 59 60 62 63 65 65 66 65 65 65 66 66 66 66 66 67 66 66 66 66 65 65 65 65 65 64

ECMWFFLT2_sfc_dewp_027.txt.gz
Dewpoint
17 18 20 19 14 15 14 11 11 12 15 11 14 28 28 28 21 18 31 27 28 32 29 32 36 37 40 41 40 40 40 41 40 41 42 44 45 46 47 50 53 54 56 57 58 58 59 60 61 62 63 64 65 66 67 67 67 68 68 70 70 70 70
17 17 19 17 14 15 9 9 11 14 15 13 13 8 12 8 6 14 23 18 22 24 24 37 36 37 38 40 41 40 41 42 42 41 42 44 44 46 47 49 51 53 54 56 57 57 58 59 61 62 63 64 65 66 67 67 67 67 68 69 70 70 70
16 18 17 17 16 14 11 9 10 8 12 10 17 16 5 6 6 6 18 23 23 26 28 32 35 36 37 39 41 41 41 42 43 43 42 43 44 45 46 47 49 51 53 55 57 57 57 59 61 62 63 64 65 65 67 67 67 67 68 69 69 70 70
14 16 17 15 15 16 15 10 7 10 10 10 11 11 21 11 8 13 5 19 11 29 25 30 31 37 36 37 39 40 41 41 43 44 44 44 44 45 45 46 47 49 51 53 55 56 57 58 60 62 62 63 64 65 66 67 67 68 68 69 69 69 70
15 14 17 15 15 15 15 9 6 8 12 16 9 24 8 10 19 13 11 9 18 28 32 31 31 35 38 37 38 40 41 42 42 44 45 46 45 45 46 46 47 48 49 51 53 56 57 58 59 61 62 63 64 64 65 67 67 68 68 69 69 70 70
14 14 18 15 16 16 15 12 7 5 6 12 5 7 18 19 13 17 12 5 16 25 35 34 32 35 37 38 38 39 40 41 43 43 44 46 46 46 46 46 47 47 49 49 51 54 57 57 58 60 62 63 63 64 65 66 67 68 68 69 70 70 70
12 13 15 18 17 17 17 15 12 7 7 13 10 11 11 22 13 27 22 13 12 27 34 35 34 35 35 36 38 39 40 41 43 43 44 46 47 47 46 47 47 47 49 50 50 52 55 57 58 60 62 62 63 64 64 66 67 67 68 69 69 70 70
19 17 16 17 19 17 16 16 15 11 7 7 6 7 19 11 20 16 16 16 15 26 39 36 34 36 35 36 38 39 39 40 42 43 44 45 47 49 48 47 47 48 49 50 51 53 55 57 58 60 61 62 63 64 64 65 66 67 68 69 69 70 70
14 15 20 17 17 17 16 15 15 14 12 8 10 24 29 13 14 15 14 9 14 28 41 36 37 38 35 35 36 39 39 40 40 42 44 46 47 48 49 49 48 49 49 51 53 54 55 57 58 60 61 62 63 63 64 65 66 67 68 69 69 70 70
13 14 13 14 15 15 18 17 14 15 13 12 12 7 20 15 27 22 16 14 26 28 34 29 32 36 38 39 36 37 38 39 39 41 42 46 47 48 49 50 49 49 50 52 54 55 56 56 57 60 61 62 63 63 64 65 66 67 68 69 69 69 70
18 20 25 29 30 16 13 13 13 13 14 13 12 19 17 14 24 18 23 27 27 23 22 27 25 25 20 21 31 39 38 38 40 41 43 45 47 48 47 50 50 51 52 53 54 56 56 56 57 59 61 62 63 64 64 65 66 67 68 69 69 69 69
33 31 31 26 24 14 13 13 12 12 13 14 13 13 13 27 18 15 25 35 21 24 29 29 29 26 23 21 19 27 39 39 38 40 42 53 47 47 48 49 50 51 52 52 54 56 56 57 58 59 61 62 63 63 64 64 66 67 68 69 69 69 70
30 30 30 30 25 17 13 13 12 12 12 13 12 15 20 24 16 16 27 30 25 24 25 25 27 27 25 21 26 28 30 36 41 43 41 43 45 47 48 49 51 51 51 53 54 56 57 58 58 59 61 62 63 64 64 65 66 67 68 69 69 69 70
30 30 30 30 24 18 14 13 12 12 11 11 11 12 15 17 21 21 25 31 22 20 19 19 20 27 26 29 33 37 39 38 40 41 41 40 43 46 47 48 49 51 52 53 54 56 58 58 59 60 61 62 63 63 64 64 65 67 68 68 69 69 69
29 29 31 26 21 18 15 15 12 12 11 10 10 10 12 21 15 15 19 31 29 29 26 18 19 21 28 41 45 38 35 38 43 43 41 40 41 43 46 49 50 51 52 54 55 56 58 59 59 60 61 62 63 63 63 64 65 66 68 68 69 69 69
28 29 29 29 30 28 17 14 16 13 11 11 10 12 11 17 20 20 19 24 24 27 27 32 30 32 36 33 37 42 41 40 45 45 44 43 43 43 46 49 51 52 53 54 56 56 57 58 60 61 62 62 63 63 63 64 65 66 67 68 68 69 69
28 28 28 29 30 25 20 17 14 16 14 13 11 12 19 17 14 16 16 13 19 21 28 25 24 23 28 32 32 36 44 48 47 45 45 45 45 45 47 50 52 51 52 54 56 56 57 57 59 60 62 62 63 63 64 64 65 66 67 68 68 69 69
27 26 27 30 28 22 19 20 17 16 16 14 12 11 10 15 16 15 15 15 18 19 26 23 20 18 22 25 36 46 46 48 52 53 50 46 46 46 47 49 50 51 52 54 55 56 57 58 58 60 62 62 63 63 64 64 65 66 67 67 68 68 69
25 26 29 31 25 24 26 34 19 17 16 16 14 15 13 12 15 19 22 20 20 24 24 25 24 28 44 52 57 60 60 52 48 53 54 54 52 48 48 49 50 52 52 53 55 57 58 58 59 59 61 62 63 63 64 64 65 66 66 67 68 68 69
30 30 31 25 26 32 34 34 33 30 19 19 22 30 41 47 41 26 21 30 29 30 33 35 37 46 52 55 58 60 63 63 60 53 45 52 54 53 51 50 51 53 53 54 55 57 59 60 60 60 60 61 62 63 64 64 64 65 66 67 67 68 69
24 28 29 30 34 31 31 32 42 48 44 35 25 23 37 45 50 42 28 30 39 42 41 39 39 45 47 49 52 58 62 63 64 64 62 58 47 50 54 54 53 54 54 54 55 58 59 60 60 60 60 61 62 63 63 64 64 64 65 66 67 68 68
28 25 31 32 27 26 32 45 48 49 50 50 49 36 36 49 51 51 43 40 45 46 45 39 41 42 41 43 50 56 62 63 64 65 65 65 63 59 55 54 56 58 58 57 58 58 58 59 60 61 61 61 62 63 64 64 64 64 65 65 66 67 68
35 35 31 30 28 30 42 46 47 49 50 51 51 42 32 47 51 54 54 49 48 43 41 43 40 33 34 43 52 58 62 63 64 64 65 65 66 65 65 65 64 61 60 60 59 60 59 59 60 61 61 62 63 63 64 64 64 64 64 65 66 66 67
37 36 33 32 33 40 45 48 49 50 52 52 40 27 30 47 52 55 56 53 52 54 49 43 41 31 37 49 54 61 63 63 64 64 64 64 65 66 66 66 66 66 66 62 61 60 60 59 60 62 62 62 64 64 64 64 64 64 64 65 65 66 67
41 38 35 36 37 46 49 50 51 52 52 45 27 25 39 51 55 56 57 58 58 57 56 55 55 57 55 56 61 62 63 63 63 63 64 64 65 65 65 66 67 66 67 64 62 61 61 63 64 63 63 63 63 64 65 65 64 64 65 65 65 66 66
37 39 36 36 40 46 51 51 52 52 46 30 29 43 54 55 57 59 60 60 60 60 60 60 59 59 61 62 62 62 62 63 63 63 64 64 64 65 66 67 66 67 66 66 66 65 65 66 67 66 65 64 63 64 64 64 64 64 65 65 65 65 66
43 41 38 35 32 41 52 53 51 52 47 47 51 51 55 59 58 60 59 60 59 59 59 59 60 60 61 61 62 62 62 63 63 63 63 64 64 64 64 65 66 67 66 67 67 68 69 70 68 68 67 66 65 64 64 64 65 66 66 66 66 66 66
37 39 35 35 47 52 53 53 48 51 52 51 50 50 56 59 59 59 59 59 59 60 60 60 60 61 61 61 62 62 62 62 63 63 63 64 64 65 65 65 65 66 66 66 67 67 67 68 68 68 68 67 67 67 66 68 69 68 67 66 66 66 65
44 40 44 52 54 55 55 56 54 54 52 51 49 50 54 57 58 59 59 60 60 60 60 60 60 60 61 61 62 61 61 62 62 62 63 64 64 65 64 64 65 65 65 65 65 66 67 67 67 67 67 68 67 67 68 69 70 69 68 67 65 65 65
53 53 54 56 55 55 55 55 57 55 52 52 50 48 50 52 55 58 59 59 59 59 59 58 58 59 59 59 59 59 59 60 60 62 63 64 65 65 65 65 64 64 65 65 66 66 66 67 68 67 67 67 67 67 68 71 71 70 69 67 65 65 64
44 40 53 53 54 55 54 54 55 55 55 54 54 52 52 50 50 51 52 53 53 53 53 53 53 53 55 55 56 57 58 58 59 61 62 63 64 65 65 65 65 64 65 65 65 66 66 67 67 68 67 67 67 67 67 70 72 72 71 69 67 65 64
45 46 51 53 55 54 55 55 54 54 55 54 53 53 52 51 51 49 50 50 50 51 51 52 53 53 54 55 55 56 57 58 59 60 61 62 64 65 66 65 65 64 65 65 65 66 66 66 67 68 68 67 67 68 69 71 72 72 71 70 70 69 68
50 52 52 53 55 54 54 55 55 56 56 55 53 52 51 50 50 49 48 48 48 49 50 51 52 52 53 54 55 56 56 57 59 60 61 62 63 65 65 65 64 64 64 65 65 66 66 67 67 67 67 67 67 67 68 70 69 69 69 68 69 69 70
45 46 48 52 48 47 52 54 55 55 55 55 53 53 51 49 47 48 48 48 49 49 50 50 51 51 51 52 54 54 55 56 57 59 60 61 62 64 65 65 64 64 65 65 65 65 65 66 67 67 67 67 67 68 67 67 67 67 66 67 68 69 69
43 50 52 54 54 53 54 55 56 56 57 55 52 52 52 50 48 46 47 48 49 49 50 51 50 50 50 50 52 52 53 54 56 58 59 60 61 63 64 65 65 65 65 65 65 65 65 66 66 67 67 67 67 67 67 67 67 67 67 67 67 68 68
51 53 54 56 55 52 53 55 56 56 57 56 53 54 54 53 52 51 48 48 48 49 50 51 52 51 50 50 51 51 51 53 55 56 58 59 60 62 63 64 64 65 65 65 65 65 65 66 66 66 66 67 66 66 66 66 66 65 65 66 66 66 67
50 54 54 55 55 55 55 56 56 56 56 57 56 55 54 53 53 53 52 51 50 49 50 50 51 52 51 50 50 50 50 52 54 57 57 58 59 60 61 63 63 64 64 65 65 65 65 65 66 66 66 66 67 66 66 66 65 64 64 65 64 64 64

ECMWFFLT2_sfc_dewp_030.txt.gz
Dewpoint
23 23 26 24 20 20 20 17 18 19 19 16 20 29 25 23 17 12 28 25 25 29 28 30 33 34 36 40 39 37 38 39 42 43 45 47 50 51 53 54 55 57 57 58 58 59 59 60 61 62 63 64 65 66 66 67 67 68 68 69 69 69 70
18 20 24 23 21 21 15 17 18 17 19 18 20 16 18 16 13 15 24 19 20 24 20 39 34 34 33 39 39 38 38 38 38 39 41 45 47 50 52 54 55 56 57 58 57 58 58 59 60 62 63 64 65 65 66 66 67 67 68 68 69 69 70
17 20 22 20 20 16 16 16 16 16 17 17 22 19 13 14 13 12 13 26 23 24 24 35 33 34 34 36 40 39 38 38 38 38 39 42 44 47 50 51 53 55 56 57 58 57 57 59 61 62 62 63 64 65 65 65 66 66 67 67 68 69 70
16 18 18 17 17 17 18 13 14 20 16 21 18 17 21 18 14 14 10 19 11 27 22 31 31 34 35 34 38 39 39 39 39 39 38 39 41 44 46 49 50 53 54 55 56 57 57 58 59 60 61 62 62 64 65 66 66 67 67 68 69 69 69
16 16 18 15 16 16 16 14 13 13 21 18 15 21 13 15 16 12 11 8 16 26 29 29 30 34 36 36 36 40 40 40 40 40 39 40 41 42 44 47 48 50 52 54 55 56 57 57 59 60 60 61 62 63 64 65 66 66 66 67 68 69 69
14 14 17 16 16 16 16 15 14 11 11 15 12 13 16 17 16 17 11 8 20 24 34 31 29 33 35 36 37 38 40 40 41 41 41 42 41 42 43 44 46 47 50 52 54 56 57 57 57 59 60 61 61 62 63 64 65 65 65 66 68 68 69
13 14 17 18 16 16 16 15 15 13 12 14 15 14 15 19 13 27 21 15 14 25 31 34 32 32 33 36 38 38 39 41 41 42 41 43 44 43 42 43 44 46 48 51 53 55 57 57 58 58 60 60 61 62 63 64 64 65 65 66 67 68 69
23 19 18 17 20 18 15 15 15 12 10 10 10 12 20 14 21 16 17 18 17 25 35 34 33 33 32 37 37 38 38 38 41 42 42 44 46 47 46 45 44 47 47 50 52 54 56 58 59 58 59 60 61 61 62 63 64 65 65 66 66 68 68
16 16 19 16 19 19 18 15 16 14 12 10 12 19 26 17 15 14 14 11 15 28 47 41 38 36 32 32 35 39 38 39 40 42 44 45 48 49 49 49 47 48 47 50 52 53 56 57 57 59 59 60 61 62 62 63 63 64 65 66 66 67 68
14 14 13 15 17 17 19 21 16 16 13 11 15 10 22 17 25 21 16 14 27 28 35 35 36 37 35 32 34 40 40 41 41 43 44 48 49 50 50 51 50 48 49 51 52 54 55 56 56 59 60 59 60 61 62 63 63 64 65 66 66 67 67
24 26 30 31 34 30 17 15 17 16 16 13 11 17 19 14 24 19 20 24 27 24 24 28 30 34 32 30 30 35 38 39 42 45 47 47 49 49 49 51 50 51 52 52 52 54 53 53 56 57 58 59 60 62 62 63 63 64 65 66 67 67 67
35 33 31 30 32 30 30 29 20 15 16 16 13 13 14 28 21 18 24 32 18 21 25 27 29 30 33 32 31 30 37 40 41 45 49 55 50 50 52 54 53 52 52 52 53 53 53 53 55 56 57 58 60 61 62 63 63 64 65 66 67 67 68
30 30 30 30 30 30 30 29 26 19 15 17 15 17 24 24 16 16 25 31 27 26 23 23 27 29 29 27 28 27 32 36 38 41 42 42 44 47 48 51 53 53 52 53 53 53 53 53 54 55 57 58 60 62 62 63 63 64 65 66 67 67 68
30 30 29 30 30 29 28 27 25 22 17 14 15 16 18 19 24 24 24 32 24 21 21 22 25 30 28 30 33 41 41 37 42 41 40 39 41 45 47 49 50 53 53 53 54 54 55 55 55 55 57 59 60 61 61 62 64 64 65 66 67 67 68
30 29 31 30 27 27 27 29 29 24 19 15 14 14 16 25 20 19 21 32 29 26 28 23 23 34 32 35 32 28 32 32 33 40 39 40 41 42 46 49 50 51 53 54 54 55 56 56 56 56 57 58 59 59 61 62 63 64 65 66 67 67 68
28 29 28 27 27 27 28 29 29 28 22 18 15 16 16 21 23 24 19 22 26 29 29 31 29 29 30 27 25 26 32 37 44 43 42 42 43 43 43 47 49 51 51 53 54 54 54 55 56 56 57 58 59 60 61 62 62 64 65 66 66 68 68
29 27 28 27 26 29 24 22 22 25 25 21 17 17 24 20 17 19 19 18 24 26 32 27 25 25 26 29 28 28 34 45 45 44 43 42 43 45 47 48 51 49 49 50 53 53 53 54 55 55 57 57 59 60 62 62 63 64 65 66 67 68 68
29 27 27 28 29 24 21 32 39 36 22 22 19 17 15 19 17 16 18 20 24 24 29 24 22 23 26 28 43 42 41 47 50 50 50 48 46 47 47 47 47 50 52 51 52 53 54 55 55 56 58 57 59 60 61 63 63 65 65 66 67 67 68
27 27 28 30 23 22 35 32 45 47 44 32 20 20 17 15 18 17 19 22 25 24 24 24 23 25 53 59 60 61 61 57 58 58 56 53 54 55 54 53 49 51 53 54 54 55 54 54 56 58 58 59 60 61 63 63 64 65 66 66 67 67 68
31 28 28 23 20 32 30 34 48 50 48 48 44 28 21 19 16 20 19 21 22 25 25 25 30 55 57 58 60 61 62 63 62 62 62 63 63 59 55 54 54 54 53 54 53 54 57 58 57 57 58 59 59 60 62 63 64 65 66 66 67 68 68
25 26 26 25 30 28 33 45 46 47 46 47 47 43 39 36 48 27 21 21 23 26 29 28 37 53 52 53 54 60 62 62 63 64 64 64 64 64 62 58 54 56 56 56 55 59 60 58 58 57 58 59 60 61 62 63 64 64 65 66 67 68 68
27 24 23 26 28 28 33 45 48 49 49 49 50 47 43 44 48 50 38 26 23 27 39 36 39 51 45 45 48 55 62 63 63 64 64 64 65 65 65 65 65 65 63 58 58 56 58 59 59 59 59 61 62 63 63 63 64 64 65 66 67 68 68
30 26 23 25 27 30 37 46 49 50 50 51 51 43 39 42 53 54 51 43 33 26 36 38 47 42 35 37 47 54 62 63 63 63 63 64 64 65 65 66 66 66 66 65 59 60 59 58 60 61 60 61 62 63 64 63 64 64 65 66 67 67 68
28 29 27 27 33 33 43 49 49 50 52 52 45 33 32 47 52 52 54 55 48 40 38 43 43 36 32 34 46 60 62 63 63 63 63 63 64 64 65 66 67 67 67 64 60 59 59 61 62 63 61 62 63 63 64 63 63 64 65 66 67 67 68
27 29 26 30 32 39 50 50 51 51 52 43 33 30 34 50 50 51 55 59 57 51 43 44 39 48 51 53 61 62 63 63 63 63 64 64 64 64 65 66 67 67 67 67 65 65 66 64 62 62 62 62 63 64 64 64 64 64 65 66 67 68 69
26 31 25 26 33 39 50 52 52 51 47 36 33 43 50 50 50 55 59 59 59 58 52 52 57 60 62 62 62 62 62 62 63 63 64 64 64 65 65 67 66 66 67 67 67 67 68 68 66 63 64 64 64 65 65 64 64 64 67 68 68 68 68
38 40 33 32 28 37 52 52 51 51 46 47 50 49 49 50 53 56 58 59 59 60 59 60 61 61 61 62 62 62 62 63 63 63 64 64 64 64 65 65 66 66 66 66 66 66 67 68 68 67 65 64 65 65 65 65 65 67 67 67 68 68 68
33 36 32 32 40 47 53 50 46 51 51 51 50 48 49 50 50 50 56 59 60 60 60 60 61 61 61 61 61 61 62 62 63 64 64 65 65 65 65 65 65 65 65 66 66 66 67 67 68 67 68 66 66 65 65 68 68 68 68 68 68 68 68
42 37 40 46 52 54 54 54 54 53 52 51 50 50 50 50 50 50 51 53 55 58 60 61 61 60 60 60 60 60 61 62 63 63 64 64 64 64 64 64 65 66 65 65 65 66 66 67 67 67 67 68 68 67 68 69 69 69 68 68 68 67 67
48 49 52 54 54 54 54 56 56 53 51 51 50 49 50 50 50 50 50 50 52 53 55 58 58 58 58 59 59 60 61 62 62 64 64 64 65 64 64 64 65 65 66 66 66 65 66 67 67 67 67 67 67 67 68 69 71 71 69 68 68 67 67
43 39 51 52 52 53 54 54 54 54 52 51 51 50 50 50 50 50 51 51 52 53 55 55 56 57 58 58 59 60 61 61 62 63 63 64 64 64 64 64 65 65 65 65 65 65 65 66 67 67 67 68 68 68 68 69 71 72 71 69 68 68 67
42 42 50 52 54 54 55 54 53 53 54 53 53 52 52 52 52 53 53 53 53 54 53 54 55 56 57 58 59 59 60 61 62 63 63 64 64 65 65 65 65 65 65 65 65 65 66 66 67 67 67 67 67 68 68 69 70 71 71 71 70 69 68
44 48 52 53 53 53 54 55 55 55 55 54 53 53 52 52 51 51 52 53 53 55 54 55 54 54 56 57 58 59 59 60 61 62 63 64 64 65 65 65 65 65 65 65 65 65 66 66 67 67 67 67 67 67 67 68 68 69 69 68 69 70 70
39 42 48 52 46 45 51 54 55 54 54 53 53 53 52 52 53 53 53 53 53 54 54 54 54 53 54 55 56 58 59 59 60 61 62 63 64 64 65 65 65 65 65 65 65 65 66 66 66 66 66 66 66 66 67 67 67 68 68 68 68 69 69
41 47 51 52 52 50 52 54 55 54 54 54 52 53 52 53 53 54 53 53 53 53 54 54 54 53 53 54 55 57 57 57 59 60 61 62 62 63 64 64 64 64 65 66 65 65 66 66 66 66 66 66 66 66 66 67 66 66 67 67 67 67 67
44 46 50 53 53 51 53 55 55 55 55 52 52 54 54 54 53 52 52 52 52 52 53 54 54 53 53 52 54 55 55 56 57 58 59 60 61 62 63 63 63 64 64 64 64 65 65 66 66 66 66 66 66 66 66 66 66 66 65 65 65 65 65
45 51 53 53 54 54 55 55 55 56 56 55 53 54 53 53 53 52 51 52 52 53 52 53 54 54 53 51 52 54 54 55 56 57 58 59 60 60 61 62 63 63 63 64 64 64 64 65 66 66 66 67 68 67 66 66 66 65 65 66 66 65 64

ECMWFFLT2_sfc_dewp_036.txt.gz
Dewpoint
19 18 18 17 19 18 19 17 16 16 18 16 20 22 20 20 20 19 23 21 18 17 18 21 23 22 23 24 22 22 27 29 36 39 47 49 51 55 58 60 62 65 65 67 67 68 67 68 68 69 71 71 72 72 73 74 75 75 75 76 74 74 74
18 20 18 17 18 18 18 16 15 17 17 17 21 14 22 16 9 13 9 13 19 19 16 18 16 18 18 20 21 18 28 32 36 42 49 52 52 54 58 61 63 64 65 66 66 66 67 67 68 69 71 72 72 72 72 73 74 75 75 75 74 74 75
18 20 18 16 18 18 16 16 17 15 18 18 22 23 16 15 15 12 9 8 10 17 23 25 23 16 17 24 27 24 22 27 33 41 48 51 52 53 57 59 62 63 64 64 66 65 65 67 69 70 70 70 70 71 71 71 73 73 73 73 74 75 75
18 20 18 17 16 18 17 19 17 17 20 20 22 22 22 21 17 18 13 10 12 23 19 17 24 26 24 18 22 22 20 25 29 37 41 48 53 54 55 58 59 62 62 63 63 64 64 65 67 68 68 68 68 69 71 71 71 73 73 74 74 74 74
18 18 17 15 17 18 16 18 18 17 18 19 19 18 16 17 20 18 18 13 20 25 19 15 20 25 28 22 23 27 24 24 23 30 34 44 53 55 56 56 58 60 62 61 62 64 63 64 66 66 66 67 66 67 69 70 71 71 71 72 73 74 74
18 17 18 16 18 18 17 17 17 17 17 19 21 22 20 15 14 19 17 17 25 14 14 21 20 20 19 24 25 26 27 22 30 29 33 41 50 56 57 55 56 58 61 61 61 63 64 62 63 64 64 65 65 66 67 68 67 69 69 70 73 74 74
18 18 19 20 19 19 19 19 16 19 19 19 21 21 24 20 16 14 17 18 25 24 24 24 21 19 14 21 21 23 23 28 26 30 30 46 54 55 54 55 54 56 60 62 61 63 64 64 64 63 64 63 64 65 65 66 66 67 67 68 70 73 73
18 17 18 21 20 20 19 18 16 17 16 16 18 18 25 24 20 16 15 22 20 26 33 28 19 27 16 23 17 25 20 21 28 33 36 42 53 57 53 53 51 55 57 61 63 63 64 65 65 64 63 64 63 64 64 64 65 65 66 67 69 72 73
22 18 21 19 19 19 18 17 18 17 16 18 17 18 23 23 20 17 16 16 18 26 33 36 27 22 19 19 17 23 27 28 25 32 46 51 58 60 55 53 53 55 55 60 64 64 68 67 63 65 64 64 63 63 63 62 63 64 66 67 68 70 71
23 21 18 18 19 18 18 20 18 18 16 18 19 17 23 18 31 31 20 20 29 30 39 28 27 21 28 23 20 17 25 34 29 32 48 59 57 61 60 59 55 54 58 61 66 66 67 65 63 66 66 63 62 62 63 62 62 64 64 65 67 69 70
24 28 36 31 32 18 16 16 18 17 16 16 19 22 21 23 30 27 29 28 27 27 24 26 24 26 25 22 26 24 25 28 45 56 55 51 58 59 56 60 59 61 61 62 65 67 65 63 63 64 63 63 62 64 64 63 63 63 66 66 68 67 69
36 29 31 27 29 22 17 16 15 16 18 19 19 19 19 33 26 20 29 35 25 26 25 26 29 27 29 27 29 25 28 45 39 40 53 62 53 58 60 62 63 63 64 64 65 68 65 63 63 62 63 62 63 64 63 63 62 62 64 66 67 68 69
26 26 25 25 27 28 28 21 15 16 18 20 20 23 20 28 25 25 32 35 33 28 24 26 29 31 32 23 27 29 33 32 36 52 45 34 44 54 56 64 66 66 65 67 66 64 65 62 62 62 62 62 64 64 64 64 61 62 65 66 67 67 69
25 25 24 26 26 27 26 26 26 24 19 20 20 19 18 19 31 29 30 36 29 26 26 25 24 28 26 26 29 30 30 23 35 38 43 29 29 32 46 59 61 68 67 68 68 66 66 63 62 60 62 64 62 63 63 62 64 63 64 66 68 68 68
26 24 24 25 25 27 27 25 25 25 24 24 24 23 23 25 23 20 24 32 31 28 34 32 29 31 25 28 26 25 33 30 25 28 27 34 32 34 45 58 59 63 67 66 68 68 67 66 63 62 63 64 63 61 61 61 64 63 63 67 67 68 69
26 24 23 23 24 24 24 25 25 24 23 23 23 25 25 27 30 30 27 30 29 30 30 33 34 33 34 31 31 29 29 24 29 31 30 38 40 40 38 42 55 63 64 66 66 67 65 64 64 63 65 63 62 60 60 61 61 62 63 64 66 70 70
25 24 23 22 22 24 24 24 23 24 25 24 23 24 26 26 25 26 27 27 30 32 32 29 31 29 29 29 27 31 32 38 33 34 33 32 33 34 42 41 58 53 51 57 66 62 61 62 61 62 63 61 63 63 63 62 63 62 62 63 68 71 71
26 24 22 23 24 21 22 31 25 25 24 25 24 23 24 25 25 24 26 27 32 31 30 31 32 31 31 33 36 35 38 38 40 35 37 35 36 35 33 37 48 55 59 58 56 60 63 62 57 59 63 60 61 62 61 62 63 65 65 65 68 71 72
25 25 25 23 21 22 34 34 35 34 28 28 27 27 25 24 26 25 26 27 30 33 32 33 36 38 36 33 33 29 29 43 49 47 40 41 44 46 48 51 49 57 64 66 65 63 57 57 60 59 59 60 60 61 62 61 64 68 66 67 67 70 72
26 25 24 21 21 30 27 32 38 41 40 38 38 32 33 33 29 30 36 34 31 33 31 29 32 35 31 37 46 48 41 38 45 41 37 37 36 38 46 61 69 72 68 67 63 63 63 59 56 58 58 58 57 57 59 60 62 63 66 68 67 69 72
24 24 23 22 31 26 26 32 36 37 40 39 34 28 28 32 49 46 45 48 41 36 39 42 39 45 43 40 38 33 32 40 43 41 39 37 47 59 65 64 64 69 71 70 68 68 66 61 57 56 56 56 56 56 58 59 62 62 64 67 68 69 71
24 22 22 22 22 23 26 35 42 45 44 45 46 43 42 50 51 50 52 50 51 51 50 52 57 54 45 38 34 33 27 29 42 50 51 56 61 61 62 67 68 70 70 70 70 70 67 65 61 59 58 57 59 60 59 59 61 62 63 67 70 72 72
21 23 21 21 22 25 36 42 42 42 45 40 50 35 29 54 53 53 53 51 55 56 55 58 59 51 39 31 35 64 61 53 55 57 61 61 61 65 66 67 66 67 71 73 71 71 71 65 62 61 60 59 57 60 62 57 60 63 65 68 70 72 73
21 21 20 19 24 23 36 40 40 42 43 42 44 30 27 51 52 51 55 54 55 56 59 59 58 55 45 34 54 59 61 60 63 64 66 67 67 67 66 67 70 71 73 73 72 68 65 66 64 64 59 60 63 62 60 58 58 62 65 68 71 72 72
21 23 21 22 24 28 30 37 41 42 39 41 34 26 47 49 53 54 55 54 55 57 58 58 56 58 57 58 59 59 61 60 64 65 66 66 66 67 67 68 70 71 70 71 69 68 72 71 67 62 59 61 63 64 64 64 62 61 65 69 72 73 73
19 19 17 19 23 28 26 27 25 36 31 30 27 48 51 53 53 56 54 55 57 58 58 58 58 59 58 58 58 58 60 62 64 65 65 66 67 67 69 70 70 70 69 71 70 68 69 69 66 64 65 65 66 67 67 66 65 63 67 71 73 73 74
21 23 21 17 17 29 36 39 31 38 30 30 50 50 54 51 55 55 56 56 58 58 57 58 59 58 57 58 58 60 62 61 64 66 66 67 67 67 68 69 69 68 70 70 69 69 68 69 69 67 64 67 68 68 69 69 66 66 68 72 74 74 74
21 20 20 20 26 42 42 44 40 51 47 52 52 53 44 53 54 55 56 57 59 58 58 57 58 59 59 60 60 61 61 62 63 65 65 66 66 66 66 66 67 68 70 70 70 71 70 72 72 72 70 70 71 70 71 74 71 70 72 74 74 74 74
34 26 23 36 41 41 40 43 46 52 52 52 53 54 54 53 54 57 56 58 57 57 59 60 60 60 60 60 60 61 62 62 63 64 65 65 65 65 67 66 68 68 68 69 69 70 70 72 73 74 75 73 74 75 75 76 74 73 73 73 73 72 72
40 38 38 39 38 38 38 42 47 47 49 52 53 52 54 55 56 57 56 57 57 58 60 60 60 60 60 60 61 62 62 63 64 65 65 65 65 65 65 67 67 67 67 69 69 69 70 70 71 73 72 73 73 74 74 75 75 73 73 73 73 73 73
34 31 38 37 37 39 41 42 44 46 47 52 53 54 55 56 56 56 57 58 59 58 59 59 60 60 61 61 61 62 63 64 64 64 64 65 65 66 66 67 67 67 67 67 68 68 69 70 70 70 71 72 73 73 73 73 74 76 75 73 73 72 72
31 32 35 37 39 41 41 40 41 42 48 52 53 54 55 56 57 57 58 58 58 58 57 58 59 59 59 60 61 63 63 63 64 64 65 65 65 66 67 68 68 68 67 67 67 67 68 69 70 70 70 71 72 72 72 74 74 75 75 74 73 73 72
31 35 36 36 38 38 37 37 38 40 48 51 51 53 55 54 55 57 58 59 58 58 58 58 58 59 59 59 60 61 62 63 64 65 65 65 65 66 66 67 68 68 68 67 67 67 68 69 69 69 70 70 71 72 73 74 75 76 75 74 75 75 74
29 29 33 40 35 34 35 40 49 49 49 49 49 51 54 54 55 57 57 58 58 58 58 58 58 58 58 58 60 60 61 62 63 64 65 65 66 66 66 66 67 67 67 67 67 67 67 68 68 68 68 68 69 69 71 73 74 73 73 74 73 73 72
29 33 38 43 43 41 42 43 45 46 47 47 49 50 53 54 54 57 59 58 58 58 58 59 58 58 59 59 59 59 59 61 62 63 64 64 65 65 66 66 66 67 67 67 68 67 67 68 68 68 68 68 68 69 69 70 71 72 72 72 71 71 71
36 36 38 40 39 37 40 42 44 45 47 47 47 48 50 54 54 55 58 59 58 58 59 59 59 59 59 59 60 60 60 60 61 62 63 64 65 65 65 65 65 66 66 67 67 67 67 67 68 68 68 68 69 69 69 68 69 70 70 71 71 71 71
38 41 42 42 41 41 42 44 44 45 47 47 47 48 50 54 55 57 57 59 59 59 59 59 61 60 60 59 60 61 61 60 61 62 63 63 63 64 65 65 66 66 66 66 67 67 67 68 67 68 68 68 68 68 68 68 68 68 68 68 68 68 68

ECMWFFLT2_sfc_dewp_042.txt.gz
Dewpoint
21 20 19 20 18 15 14 11 10 9 10 11 19 21 15 13 12 13 17 15 13 12 10 12 17 16 19 21 21 23 31 45 48 45 45 41 39 53 58 57 56 60 63 64 64 64 64 66 67 68 70 71 72 73 74 74 75 74 74 75 75 75 75
20 21 20 20 18 13 11 9 9 10 11 11 18 15 22 15 10 13 7 9 13 12 14 14 14 17 18 19 20 19 27 32 38 44 46 48 44 44 51 55 58 61 64 65 64 64 66 66 66 68 71 71 72 73 73 74 75 75 74 74 74 75 75
19 20 21 21 19 15 13 10 10 8 12 14 21 21 14 15 16 16 14 11 12 15 20 14 14 14 17 23 27 22 21 23 32 38 48 47 46 44 49 56 58 57 59 63 64 63 64 65 69 69 70 70 71 72 73 74 74 74 74 73 74 75 75
18 20 22 22 18 16 14 14 11 10 13 16 19 19 21 23 20 19 17 17 16 18 17 17 18 21 23 19 21 19 19 22 30 34 45 45 48 47 46 49 55 55 55 59 62 61 57 65 68 67 67 67 68 71 73 74 74 75 75 74 75 75 74
17 18 22 21 20 16 13 12 13 12 11 14 15 14 14 18 23 24 21 15 20 22 16 18 23 24 26 24 25 33 24 23 25 32 48 50 49 47 44 47 50 49 52 54 60 61 60 66 67 67 66 67 67 69 72 73 74 74 74 74 74 74 75
17 17 20 20 20 17 12 12 14 13 11 12 13 14 11 11 16 21 18 19 28 13 11 18 22 26 23 25 26 27 24 19 30 34 45 47 44 46 46 47 49 53 56 55 57 61 62 64 65 67 67 66 67 68 71 73 73 73 73 73 74 74 75
15 16 17 19 19 18 13 11 12 13 12 12 14 15 15 11 10 10 17 16 29 28 23 24 21 23 20 23 21 24 21 25 22 30 27 47 47 44 40 47 46 50 54 53 53 58 60 63 66 67 67 66 67 68 70 72 73 73 73 73 73 75 74
17 15 16 19 19 18 13 11 11 12 11 10 10 13 19 17 14 11 11 21 22 23 50 41 21 36 21 26 20 27 20 21 28 29 29 51 49 49 44 48 46 54 54 58 62 62 62 64 68 68 67 67 67 67 69 70 71 73 72 72 72 73 73
29 14 16 15 17 17 15 11 11 12 13 13 11 13 22 20 14 10 12 13 19 24 38 33 25 20 18 19 17 22 23 29 24 30 39 50 53 52 48 56 60 61 63 64 66 66 69 70 67 69 69 68 67 67 68 69 70 72 72 72 72 72 72
25 16 16 19 19 18 16 15 11 12 11 15 15 14 25 20 33 31 17 16 25 26 36 25 22 20 33 23 19 19 24 34 28 34 52 52 53 54 53 60 58 59 64 64 66 68 71 69 67 70 70 68 67 68 68 68 69 70 71 71 71 72 72
24 23 28 19 21 18 15 13 11 10 10 10 16 21 22 18 28 25 31 28 28 27 22 26 15 20 18 19 24 22 41 44 48 58 56 57 61 59 55 61 57 62 66 66 65 69 69 66 66 67 68 68 67 70 69 68 69 69 71 70 71 71 72
31 34 31 28 24 17 16 14 9 9 10 11 14 16 16 39 25 21 34 49 28 27 28 28 30 24 37 23 29 36 38 41 41 52 61 57 50 56 61 63 66 64 66 72 71 72 69 66 66 66 67 67 68 70 68 68 67 68 69 70 71 72 73
28 28 28 29 28 26 17 15 11 10 10 11 13 20 17 30 25 27 41 48 38 32 23 20 25 34 35 19 23 33 36 35 48 53 47 43 49 54 54 68 66 62 69 73 73 71 70 67 66 66 66 67 69 70 69 69 67 67 69 70 70 70 73
28 27 27 28 28 26 28 16 13 10 10 11 10 13 15 18 38 34 32 44 28 24 19 19 21 28 24 29 35 37 38 34 53 42 47 39 43 47 52 60 63 64 68 74 74 73 72 68 69 64 67 69 68 68 67 67 69 67 69 69 70 69 71
25 27 26 26 28 29 27 24 13 10 9 10 10 11 15 21 22 19 21 38 37 28 34 29 28 35 25 31 31 31 41 35 32 34 34 40 39 42 48 63 58 67 69 71 73 74 73 72 70 68 68 68 67 65 65 65 68 67 67 70 70 69 70
29 27 27 27 26 27 27 27 19 13 11 13 12 14 14 20 27 27 21 36 30 30 31 27 33 35 38 34 36 36 36 28 37 34 30 36 49 47 51 56 56 65 64 68 70 71 69 68 70 68 70 67 65 64 65 64 64 65 65 68 68 71 71
30 29 29 26 27 27 26 27 22 15 16 14 14 15 18 18 19 22 25 28 32 37 36 30 30 29 33 35 31 36 41 50 37 37 37 35 36 48 58 62 66 62 60 62 68 64 63 64 64 64 68 64 66 66 67 66 65 64 64 65 71 72 72
29 28 28 27 27 25 26 29 26 24 20 18 16 15 15 16 15 21 24 32 37 35 31 31 34 33 38 42 47 42 46 52 50 35 39 33 33 34 36 40 41 53 61 68 67 65 69 66 60 61 65 64 66 65 64 66 65 66 67 67 70 72 72
28 29 30 27 26 26 32 28 28 23 24 25 20 18 14 16 17 18 23 28 36 39 33 35 41 45 38 34 36 32 32 44 42 47 36 46 49 52 52 54 51 68 69 69 67 63 50 55 66 64 64 62 66 64 65 65 67 71 70 68 69 73 73
29 28 27 25 25 32 28 27 25 26 26 23 24 23 21 18 17 21 26 31 32 38 36 34 39 45 34 34 40 41 33 35 37 33 36 38 37 39 45 67 71 72 66 65 57 66 68 57 49 61 62 61 60 61 61 63 64 66 70 70 69 74 73
26 26 25 26 32 27 26 26 27 26 29 28 28 27 27 27 27 27 31 32 32 32 32 34 35 37 34 38 39 33 34 36 31 29 55 57 40 45 54 61 62 69 70 66 65 68 66 60 55 51 52 59 59 58 60 61 65 62 65 71 69 72 74
29 29 26 26 24 24 26 32 28 28 27 30 29 31 29 31 26 27 30 33 33 30 28 32 35 33 36 35 40 40 36 53 58 58 60 60 59 58 60 66 67 72 73 72 70 70 70 67 64 62 56 56 63 64 62 61 62 62 63 68 71 72 74
27 28 26 25 24 26 34 29 28 27 32 32 32 30 27 34 31 28 26 26 37 41 31 39 43 40 38 39 48 56 56 59 61 61 61 61 61 62 67 68 67 67 69 69 68 69 66 62 64 67 65 62 56 69 67 59 60 62 65 68 71 72 73
26 26 25 26 28 33 36 30 26 31 32 33 34 29 31 51 50 47 42 30 39 41 56 51 47 46 41 38 56 53 55 59 60 61 61 63 63 62 65 67 65 67 71 71 72 69 68 74 74 73 64 67 71 76 67 59 59 65 66 69 73 72 73
25 28 25 27 34 40 39 37 35 37 34 35 32 31 50 53 51 49 49 45 51 54 54 52 50 50 51 56 56 56 58 59 60 59 60 62 64 63 63 64 71 67 65 69 69 67 73 74 69 69 69 70 73 72 74 72 64 62 68 72 75 75 75
22 24 23 24 36 40 39 38 41 42 36 32 36 50 53 52 51 52 51 54 55 56 56 56 57 56 55 57 57 58 59 59 60 61 62 64 64 64 63 68 69 66 65 71 71 69 71 70 72 73 73 74 75 77 75 73 74 69 76 74 75 75 75
22 25 24 24 28 44 38 39 44 47 44 49 51 54 54 53 54 53 53 56 56 56 56 56 56 56 57 58 59 59 60 59 60 61 63 64 64 64 65 67 67 64 66 69 69 70 69 70 71 73 74 77 74 75 75 75 75 77 73 76 76 76 75
20 21 22 27 41 41 40 44 44 45 47 51 54 53 53 54 54 54 55 56 56 57 57 55 57 58 59 59 59 59 60 60 61 62 64 64 64 64 64 65 66 65 67 69 69 70 70 72 72 73 76 76 76 73 74 76 75 76 76 81 79 77 76
31 30 34 38 40 39 39 41 41 42 42 46 50 53 53 55 53 54 55 56 56 57 57 56 57 58 57 58 58 59 60 60 60 61 63 64 64 64 64 64 67 66 66 68 68 69 70 72 73 74 76 76 70 72 78 79 76 75 77 78 78 78 76
36 34 37 40 39 39 38 37 40 39 38 41 46 50 53 52 54 54 54 55 55 55 57 56 57 58 59 58 58 59 60 61 62 63 63 64 64 64 64 66 66 67 67 67 68 68 70 71 72 74 74 75 75 75 76 77 77 77 76 76 78 78 78
30 28 34 35 36 38 36 36 39 40 37 42 47 50 49 49 51 51 53 55 55 55 57 57 58 58 59 59 59 61 61 62 63 64 65 66 66 66 67 67 67 67 67 67 68 68 71 71 71 70 71 72 74 75 74 72 74 77 78 75 78 77 78
31 32 35 36 37 38 36 34 36 37 42 46 47 48 48 49 50 51 51 53 55 56 56 57 57 58 58 59 60 60 61 62 63 63 64 66 66 67 68 68 68 69 69 69 69 69 70 70 70 70 71 71 72 74 74 76 75 76 75 75 76 77 76
30 33 34 35 35 34 35 35 36 37 45 45 46 45 46 47 48 48 50 52 53 55 57 58 58 58 59 59 61 60 61 62 63 64 64 66 66 66 66 67 68 68 69 69 69 69 69 69 70 71 70 71 72 73 74 76 77 76 77 75 76 76 77
28 28 30 34 28 28 30 32 38 42 42 43 43 44 46 46 47 48 47 49 51 54 57 58 59 59 60 61 61 61 60 62 63 63 64 65 66 65 66 66 67 68 68 68 68 69 69 70 70 70 70 71 72 71 74 75 76 76 77 77 75 76 75
27 30 32 38 36 35 34 34 36 39 42 42 42 43 45 46 46 47 47 47 49 51 55 58 59 60 61 61 61 60 59 62 62 63 64 65 65 66 66 67 67 67 68 68 68 68 68 69 69 69 69 69 71 72 73 75 75 75 75 76 76 75 76
33 33 35 36 35 34 36 37 39 39 42 41 41 43 44 45 46 45 46 48 48 49 52 57 59 60 61 61 61 61 61 60 62 63 64 65 66 65 65 65 66 66 67 67 67 67 68 68 68 70 69 69 70 70 71 72 74 74 74 75 75 75 74
34 36 38 39 38 37 38 40 41 41 42 41 41 42 42 43 44 45 46 47 48 48 50 55 58 60 61 61 61 62 62 61 62 63 64 64 64 65 66 66 66 65 67 68 68 68 68 69 69 68 68 68 68 69 70 71 71 73 74 74 73 73 74

ECMWFFLT2_sfc_dewp_045.txt.gz
Dewpoint
20 19 20 18 19 15 14 13 12 13 17 14 22 32 18 25 24 17 29 31 19 16 16 19 22 19 20 23 22 30 39 47 47 47 52 54 54 55 56 57 58 60 61 61 61 62 64 65 65 65 67 68 69 70 70 71 71 71 71 72 72 71 71
20 20 20 18 19 19 12 11 13 17 20 16 17 19 26 19 15 20 14 14 17 15 16 15 15 18 18 20 21 19 35 43 44 49 49 53 53 54 56 58 59 60 61 62 62 62 63 65 65 65 66 67 69 71 71 71 71 71 71 71 71 71 71
19 20 20 18 19 20 15 12 17 14 14 12 19 25 20 17 16 17 15 12 15 18 21 14 13 12 16 21 22 19 29 40 42 50 51 52 52 52 55 58 59 59 60 61 62 62 63 64 65 65 66 68 69 70 71 71 71 71 71 71 71 71 72
19 19 19 18 18 19 20 17 15 15 15 14 20 15 22 21 25 17 18 13 13 19 17 14 12 13 14 22 27 22 22 41 42 49 50 51 50 51 53 56 57 58 59 60 60 62 62 63 64 65 65 67 68 70 71 71 71 72 72 72 72 71 71
18 17 19 19 18 17 17 17 14 13 15 16 18 22 13 25 25 24 21 20 25 31 25 16 14 14 17 21 22 32 26 42 42 46 46 50 50 51 53 55 57 58 58 59 59 60 61 62 64 65 65 67 68 69 70 71 72 72 72 72 72 72 72
16 16 19 20 19 18 17 17 13 10 9 12 9 16 12 12 19 20 25 22 33 22 18 23 17 18 16 22 23 24 33 37 44 46 46 48 51 52 53 54 56 57 58 59 59 60 60 62 64 64 65 67 68 69 70 71 71 71 71 72 72 72 72
17 16 18 21 20 19 18 17 14 10 9 14 14 17 16 13 12 13 25 23 29 39 31 30 21 18 18 22 25 28 27 27 41 46 46 45 50 52 52 52 54 56 58 60 60 60 62 63 65 66 66 67 68 69 69 70 71 71 71 71 71 72 72
23 21 19 21 21 20 19 17 15 12 9 9 16 21 25 15 18 13 18 27 30 35 34 35 25 24 22 24 22 29 26 25 42 45 46 45 47 52 51 52 54 56 58 60 60 61 62 63 64 65 67 67 67 68 69 70 71 71 71 71 71 72 72
24 25 18 20 21 21 20 17 16 14 13 11 13 18 30 19 16 13 18 18 25 36 39 27 26 23 22 22 22 30 23 29 43 45 46 46 47 51 52 54 55 56 58 59 61 61 62 64 64 65 66 66 66 66 67 70 71 72 72 72 72 71 72
22 23 23 20 20 20 20 19 15 14 12 12 13 13 29 18 33 23 19 22 28 34 39 32 28 29 30 21 21 24 28 30 39 46 46 47 47 48 52 54 53 54 57 60 62 62 63 64 64 66 66 66 66 66 66 69 72 72 72 72 72 71 72
35 36 42 33 25 21 19 19 17 13 12 13 14 22 29 19 36 24 31 33 32 31 25 21 29 30 31 32 46 48 50 53 52 44 49 47 47 47 51 53 53 54 56 59 62 63 63 62 63 65 66 66 66 67 67 68 71 72 73 73 73 72 71
37 34 34 31 24 19 19 18 17 14 12 12 16 14 20 36 31 22 35 42 28 28 33 29 30 28 37 41 45 47 50 52 52 43 49 56 46 49 51 53 54 55 56 59 60 61 62 62 62 64 65 66 67 67 67 67 69 72 73 73 73 72 72
32 31 30 29 29 18 18 18 17 15 11 11 12 21 29 32 30 29 37 40 35 32 28 29 40 33 32 41 42 45 47 49 51 51 47 46 51 55 53 55 55 56 57 59 60 60 61 61 62 63 65 66 67 67 67 68 68 70 72 73 73 72 72
31 31 29 29 29 29 21 17 17 17 12 11 11 17 23 28 35 39 44 36 36 23 24 30 34 36 36 38 40 43 47 47 50 49 48 52 55 55 56 58 58 58 59 61 61 61 62 61 62 64 66 67 67 67 67 67 68 69 71 72 72 72 72
34 35 33 33 29 27 30 27 18 17 16 11 11 11 16 30 24 21 39 39 39 34 29 36 38 35 35 35 33 38 44 46 45 45 46 52 56 57 57 59 59 61 63 64 64 65 65 65 65 66 68 68 68 67 68 68 68 68 70 71 72 72 72
37 36 34 30 29 26 27 30 32 29 18 12 11 12 14 25 32 29 38 37 31 27 36 39 35 36 37 36 35 34 38 42 46 44 44 48 54 57 57 57 60 68 69 68 66 65 66 66 66 66 67 68 68 67 68 68 68 68 68 70 71 71 71
31 38 40 35 28 28 28 28 28 33 29 22 11 12 19 22 28 28 34 33 36 34 37 33 37 37 38 40 41 43 43 43 39 40 46 48 51 56 58 62 63 66 69 70 70 68 67 67 67 66 67 67 68 68 68 68 68 68 67 68 70 71 71
28 29 32 30 30 29 30 38 31 34 29 26 11 10 11 16 26 28 36 40 42 36 32 34 36 36 36 36 43 44 41 39 39 37 39 45 54 58 57 56 57 60 62 68 69 69 69 68 68 67 68 67 67 68 67 67 67 67 67 67 69 70 70
28 29 33 33 30 30 42 35 31 31 30 26 27 17 11 13 27 24 28 36 43 44 43 39 40 43 43 42 41 42 47 42 43 48 45 46 50 49 57 63 66 64 63 65 67 67 65 65 65 65 65 66 67 66 67 67 67 67 67 67 68 69 70
29 34 40 27 29 37 38 31 30 33 31 30 34 39 46 45 48 38 31 35 36 35 37 41 41 34 35 39 49 57 59 57 58 58 61 64 64 67 68 69 68 65 64 66 67 68 68 61 64 62 62 63 64 65 65 66 67 66 67 67 68 70 69
29 29 34 30 42 35 35 35 36 39 35 36 31 38 46 50 51 52 44 36 33 35 36 35 36 38 42 52 58 60 60 61 61 62 65 66 67 66 67 68 69 70 70 70 70 70 68 67 61 62 63 61 61 62 63 63 65 66 67 68 67 70 70
30 26 29 39 31 33 36 40 41 45 42 33 37 45 47 51 51 54 53 41 36 36 36 37 38 42 51 55 57 59 59 59 61 62 63 65 66 65 64 64 65 68 69 69 71 69 65 63 64 67 66 62 63 62 63 63 63 64 65 68 68 70 71
23 31 33 34 33 40 40 42 41 45 45 40 37 45 46 51 51 55 55 55 52 45 37 36 38 49 53 54 57 58 59 59 61 63 63 63 63 64 65 66 65 66 69 71 71 72 72 70 71 71 67 66 66 65 64 62 62 63 64 65 69 70 73
26 30 35 38 38 39 42 44 44 46 48 41 40 41 45 51 52 55 55 54 55 55 55 55 55 54 53 55 57 58 59 60 62 64 64 63 62 61 65 67 66 66 69 70 68 69 71 72 72 72 73 71 73 72 73 63 61 62 63 65 68 70 73
23 30 30 31 39 42 41 41 45 48 49 42 44 41 50 52 54 55 55 54 55 55 56 56 55 57 58 58 59 59 60 61 62 63 64 63 63 62 66 67 69 65 68 71 71 70 71 71 71 72 73 75 75 72 74 72 69 63 63 66 69 71 72
22 36 37 31 45 44 43 43 46 50 48 46 44 53 53 54 53 54 54 54 54 55 56 57 57 57 58 59 59 60 60 61 62 63 63 63 63 63 68 70 67 65 67 70 70 69 70 71 71 71 72 74 76 76 74 73 74 73 69 67 69 70 71
25 33 34 31 31 43 41 42 48 50 50 51 54 56 52 52 53 53 54 54 55 55 55 57 57 57 58 58 59 60 61 61 61 62 63 64 64 64 65 66 66 66 67 69 68 68 69 71 72 72 73 75 75 76 74 75 76 75 78 69 70 71 71
27 33 34 36 44 42 42 44 45 51 55 56 56 53 50 51 52 53 53 54 55 55 56 57 57 57 57 58 59 60 60 62 63 64 65 66 65 64 65 66 66 67 66 67 68 69 70 72 73 73 74 74 76 75 75 77 76 76 75 77 73 72 71
39 39 41 46 45 49 43 49 48 46 51 53 51 52 49 49 50 52 52 53 55 56 57 57 57 56 57 58 59 59 60 61 62 63 64 65 66 66 66 67 68 68 66 67 68 69 71 71 71 72 74 74 75 74 74 75 76 77 76 77 75 73 72
39 38 38 46 43 39 40 42 50 47 46 46 47 51 51 50 49 50 50 51 54 56 57 57 57 57 58 59 59 59 60 61 62 63 64 65 65 66 66 67 68 69 68 68 68 70 70 70 70 71 71 72 73 73 75 75 75 76 76 77 76 75 74
31 31 40 37 38 39 46 47 46 48 49 48 47 51 51 50 49 48 49 50 52 55 57 58 57 57 59 59 60 60 61 61 62 63 63 64 65 66 67 68 68 68 69 69 70 70 70 70 70 71 71 71 71 74 74 75 76 77 76 78 76 76 76
34 35 37 38 39 40 41 41 47 42 50 51 46 47 49 52 50 48 48 49 49 51 56 57 58 58 59 60 60 60 60 62 63 63 63 64 64 65 66 67 68 68 69 69 69 69 69 70 71 71 71 70 71 72 74 74 76 76 77 76 76 75 76
32 33 39 37 36 41 38 41 38 41 42 44 45 45 45 48 49 49 47 47 48 49 51 56 58 59 60 60 61 61 61 62 63 63 63 64 64 65 66 67 68 68 68 69 69 69 69 70 70 70 70 70 71 71 71 74 75 76 76 77 77 76 76
28 31 35 36 36 33 34 38 38 40 41 42 44 47 45 46 51 51 48 46 47 49 49 52 57 59 60 61 61 61 61 62 62 62 63 63 64 65 67 67 68 68 69 69 69 68 69 69 69 69 69 70 70 70 71 71 73 75 74 76 75 74 74
35 37 38 41 39 39 39 39 39 43 46 44 44 49 46 46 46 50 50 45 46 48 49 50 54 58 60 60 61 61 60 61 62 64 64 64 65 66 67 66 67 67 67 69 68 68 68 69 69 69 69 69 69 69 69 71 71 72 74 73 74 74 73
38 39 40 40 40 39 40 40 40 39 42 41 42 44 45 47 47 47 48 49 47 47 48 49 52 58 60 60 61 61 62 62 62 63 64 64 65 67 67 67 65 66 66 68 68 69 69 69 69 69 68 68 68 68 69 70 70 73 74 73 73 73 73
38 40 41 41 41 41 41 41 41 41 43 45 43 43 44 46 48 48 48 48 50 49 48 49 51 57 59 59 60 61 62 63 64 64 66 67 66 66 67 67 67 67 67 68 68 68 68 69 69 68 68 68 68 68 69 70 70 71 72 73 73 73 74

ECMWFFLT2_sfc_dewp_048.txt.gz
Dewpoint
22 20 21 20 22 19 21 20 19 20 21 19 22 34 23 28 23 13 32 27 23 20 18 16 24 28 28 33 38 47 47 49 51 52 53 54 55 56 58 59 59 60 60 60 61 61 62 63 63 64 66 67 67 67 67 67 67 68 69 70 70 70 70
24 23 21 20 20 21 20 19 19 19 21 22 20 15 26 17 14 18 20 15 22 14 15 26 16 18 20 29 35 46 47 48 50 52 53 54 54 56 58 59 60 60 60 61 60 61 62 63 63 64 65 66 67 68 68 68 68 68 68 69 69 69 69
20 22 21 20 20 19 19 20 18 18 16 16 20 22 15 14 13 18 19 18 21 22 21 26 13 14 16 20 30 43 48 49 50 51 53 54 54 55 57 58 60 60 60 60 60 61 62 63 64 64 65 66 67 68 68 68 68 68 68 69 69 70 70
19 20 19 18 18 19 19 17 17 19 18 18 16 17 25 16 22 13 16 19 14 24 21 21 15 14 13 15 21 42 48 50 51 52 53 54 54 55 56 58 59 60 60 60 60 61 62 63 63 64 65 66 67 68 69 68 69 69 69 69 70 70 70
23 19 19 18 18 18 17 14 16 17 22 20 19 22 14 21 24 16 18 15 22 24 20 17 17 16 15 15 17 38 49 50 51 51 52 53 54 55 56 58 59 60 60 60 60 61 62 63 64 65 65 66 67 68 69 69 69 69 69 69 70 70 70
26 21 20 19 19 19 17 14 14 15 14 15 13 15 16 20 20 21 17 14 27 20 17 18 17 17 15 15 15 27 48 50 51 51 52 53 54 55 56 57 58 59 60 60 60 61 62 63 64 64 65 66 67 68 68 69 69 69 69 69 70 70 71
27 25 22 21 20 20 18 16 14 14 14 15 14 17 15 11 12 33 29 20 21 33 31 22 19 18 16 14 14 25 47 49 49 50 51 53 54 54 55 57 58 59 60 60 60 61 61 63 64 64 65 65 66 68 68 69 69 69 69 70 70 70 70
33 30 28 24 21 20 18 18 17 14 13 13 13 16 22 13 17 12 18 21 20 27 39 31 19 19 16 15 15 28 45 47 48 48 51 53 54 54 55 56 57 58 60 60 61 61 61 63 64 64 64 65 66 67 68 69 69 69 70 70 70 70 70
28 24 26 22 22 20 19 18 18 14 14 13 17 24 25 14 15 12 16 16 14 30 37 37 35 25 18 14 16 32 42 46 46 48 51 52 53 54 55 56 57 58 59 60 61 62 62 63 63 64 64 64 65 66 68 69 69 70 70 70 70 70 70
25 21 20 25 25 19 19 19 18 16 13 13 16 18 21 16 27 24 18 22 21 30 30 27 29 26 19 16 21 33 41 44 46 48 50 52 53 54 54 56 57 57 59 60 61 62 62 62 63 64 64 64 65 66 67 69 69 70 70 70 70 70 70
29 31 34 35 34 32 24 18 18 17 13 13 15 27 23 17 29 22 23 21 21 25 20 24 26 25 18 20 30 33 37 44 47 49 51 51 52 53 53 55 56 57 59 59 60 61 61 62 62 63 63 63 64 66 67 68 69 70 70 70 70 70 70
30 29 28 28 31 31 32 24 18 18 16 12 14 18 19 29 24 18 28 30 21 27 28 27 37 43 41 39 40 43 37 44 46 48 50 57 51 52 53 54 55 57 58 59 60 60 61 61 62 63 63 64 64 66 67 68 69 69 70 70 70 70 70
27 26 24 23 26 30 31 30 19 18 18 16 13 18 22 32 21 22 27 32 29 25 24 27 32 44 44 44 46 46 41 44 46 48 49 50 50 51 52 53 55 56 58 59 60 60 61 61 62 63 64 64 65 66 67 68 69 69 70 70 70 70 70
25 24 24 28 30 31 30 25 19 18 17 16 15 16 26 27 33 28 27 34 28 25 24 28 33 40 44 48 49 50 47 44 47 47 47 48 49 50 51 52 54 56 58 59 60 60 61 61 62 63 64 65 65 66 66 67 69 70 71 71 71 71 70
23 25 30 31 37 34 29 27 19 18 18 16 16 15 21 32 33 30 35 38 33 31 37 41 42 41 41 44 48 47 46 46 47 46 46 47 48 50 51 52 53 55 57 59 60 61 61 61 62 63 64 65 65 66 66 66 67 70 71 71 71 71 71
22 26 27 28 36 33 32 30 25 19 18 17 15 17 24 30 30 34 37 34 32 35 41 36 37 37 38 40 44 46 48 46 48 47 46 46 47 49 51 52 53 55 57 59 60 61 61 61 62 63 64 64 65 65 65 66 66 68 71 72 72 72 72
24 24 25 30 33 32 31 34 38 36 33 25 17 17 40 49 41 34 33 29 37 37 39 35 36 34 36 37 38 44 47 51 49 48 47 48 49 51 52 54 55 54 56 58 60 61 61 61 62 62 64 64 65 65 66 66 67 67 69 71 72 72 72
23 23 25 34 33 29 33 39 41 42 41 39 45 49 51 52 52 47 39 36 38 38 33 37 47 53 53 55 58 54 47 49 52 54 55 54 55 55 54 54 55 56 58 59 60 61 61 62 62 62 64 64 65 66 67 67 67 67 68 70 72 73 73
23 29 37 39 30 32 44 41 42 43 44 50 50 52 52 52 53 53 50 37 38 41 53 58 59 60 61 62 63 64 65 64 64 64 64 63 62 61 61 62 64 66 65 63 63 63 62 62 62 63 64 65 66 66 67 67 68 68 68 69 70 72 73
28 34 33 30 35 43 43 42 42 44 43 43 49 51 52 53 53 54 52 49 41 52 58 59 59 60 60 61 61 63 64 64 63 63 63 64 65 66 67 66 65 66 66 66 66 66 67 68 67 65 66 67 67 67 67 68 68 68 68 68 69 71 72
29 27 25 33 42 43 41 42 42 42 42 43 45 49 51 53 53 54 54 54 53 51 58 58 59 60 60 60 61 62 62 62 63 63 63 63 63 64 65 67 68 69 69 68 68 67 65 65 64 66 66 67 67 67 67 67 68 68 68 68 68 70 71
30 22 30 35 37 34 41 43 42 42 44 45 46 52 51 53 53 54 54 55 56 57 55 56 58 58 59 58 59 62 62 62 62 63 64 64 65 65 66 68 69 70 70 71 72 71 71 72 72 72 67 63 66 67 67 67 68 68 68 68 69 69 70
22 24 29 32 31 40 42 42 42 42 45 47 48 49 49 52 53 54 55 55 56 57 57 57 57 57 57 57 59 61 62 62 63 64 64 64 64 65 65 67 69 70 71 71 71 71 70 70 71 73 74 74 67 66 66 65 66 67 67 68 68 69 69
23 29 29 32 39 37 42 42 42 42 47 50 47 44 46 53 53 53 54 55 56 56 57 58 58 57 57 58 60 62 62 63 63 64 65 65 65 66 66 67 68 70 70 69 69 70 70 70 71 72 74 75 76 75 74 69 64 64 66 67 68 69 70
25 25 29 36 39 43 44 43 43 45 50 49 43 40 50 57 54 53 55 55 56 57 57 58 57 59 60 60 62 63 64 64 64 64 65 65 65 66 67 67 69 67 68 68 68 70 71 71 72 73 74 75 75 75 74 71 71 68 64 65 67 69 70
25 26 32 32 40 45 45 46 46 49 48 44 44 53 58 58 53 53 55 56 56 56 57 57 58 59 60 61 62 62 63 64 65 65 65 66 66 66 68 70 69 67 67 68 69 70 71 71 71 73 74 74 75 74 73 73 74 76 75 72 67 68 71
29 37 35 34 31 40 45 48 46 50 47 49 54 57 55 56 50 50 53 55 57 56 57 58 58 58 59 60 61 61 62 62 63 64 65 66 66 66 67 67 69 68 67 68 69 70 70 70 70 71 73 73 74 73 72 73 74 75 76 75 69 68 70
33 35 35 35 43 46 48 49 45 50 53 56 55 54 53 55 49 48 49 52 56 57 57 58 58 58 59 59 60 61 61 61 62 63 64 65 66 66 66 67 68 69 68 68 69 69 69 70 70 70 71 71 73 73 72 74 75 76 75 75 71 68 69
39 38 42 44 45 50 51 51 51 52 49 51 55 55 54 53 51 50 47 47 51 56 58 59 59 59 59 59 60 60 61 62 62 62 63 63 64 65 66 66 67 68 69 69 69 68 69 70 70 70 70 70 71 71 71 74 75 75 75 76 73 70 69
43 44 39 44 39 45 50 52 52 50 50 49 53 54 53 54 52 52 50 47 47 49 54 58 59 59 59 59 60 60 61 62 62 63 62 63 63 64 65 66 67 67 68 69 69 68 69 69 70 70 70 70 69 69 71 72 73 75 75 76 74 72 70
34 33 38 38 40 41 45 48 47 47 48 50 52 54 54 54 53 53 52 50 48 46 46 52 58 59 59 60 60 60 61 61 61 62 62 62 63 64 65 66 67 67 68 68 68 68 68 68 69 69 69 69 70 70 70 70 72 73 75 76 75 73 72
37 39 40 38 39 41 43 48 46 48 49 50 47 50 55 54 52 52 52 51 50 47 45 46 51 58 59 60 60 60 60 61 61 61 62 62 63 63 65 66 67 67 67 67 67 67 67 68 68 69 69 69 69 68 68 69 70 71 74 76 76 73 73
37 40 41 38 38 38 39 44 46 49 50 50 48 46 47 52 50 49 51 49 52 50 46 47 47 54 59 59 60 60 61 61 61 61 61 62 63 63 65 65 67 67 67 67 67 67 67 68 68 68 68 68 69 68 68 69 70 70 72 75 76 73 73
34 36 37 39 36 36 37 38 43 42 44 47 48 48 46 46 46 49 51 48 50 49 51 47 47 49 57 58 59 60 61 61 61 61 61 62 63 64 65 66 65 65 67 68 67 67 66 67 67 67 67 67 68 68 68 68 69 69 71 73 72 72 72
34 36 38 41 41 39 39 40 41 42 44 48 45 46 47 46 46 47 50 50 47 47 48 49 48 48 55 57 59 60 61 61 62 63 62 62 62 63 65 65 65 65 66 68 67 67 67 67 67 67 67 67 67 67 67 68 68 69 71 71 71 71 71
38 38 39 39 39 38 39 40 41 41 43 43 45 41 48 49 48 51 50 49 49 48 48 47 49 49 54 56 58 59 60 62 63 64 64 64 64 65 66 66 65 66 66 66 66 66 66 67 67 66 67 66 67 67 67 68 68 69 70 70 70 70 71
37 39 39 40 40 39 40 40 41 41 43 44 43 45 48 49 53 52 51 48 46 48 46 45 45 48 51 55 58 60 60 62 64 65 65 66 66 66 66 66 65 65 65 65 65 65 66 66 66 67 66 66 67 67 68 68 68 69 70 71 71 71 71